Observation data for McCamey on 01/20/2019      Previous  Date  Next       Current Mesonet Observations  Soil Data  Daily Summary Page  Observations in Plain Language
KMC4 200600Z 11003KT 05/M03 A3032 RMK A01 T00531027  RH  056%=      5-min Rain = 0
KMC4 200601Z 11004KT 05/M03 A3032 RMK A01 T00521028  RH  056%=      5-min Rain = 0
KMC4 200602Z 11004KT 05/M03 A3032 RMK A01 T00531029  RH  056%=      5-min Rain = 0
KMC4 200603Z 13004KT 05/M03 A3032 RMK A01 T00541029  RH  055%=      5-min Rain = 0
KMC4 200604Z 14003KT 06/M03 A3032 RMK A01 T00551030  RH  055%=      5-min Rain = 0
KMC4 200605Z 14003KT 06/M03 A3032 RMK A01 T00551029  RH  055%=      5-min Rain = 0
KMC4 200606Z 13003KT 06/M03 A3032 RMK A01 T00551029  RH  055%=      5-min Rain = 0
KMC4 200607Z 13003KT 05/M03 A3032 RMK A01 T00541030  RH  055%=      5-min Rain = 0
KMC4 200608Z 13003KT 05/M03 A3032 RMK A01 T00541030  RH  055%=      5-min Rain = 0
KMC4 200609Z 11004KT 05/M03 A3032 RMK A01 T00541030  RH  055%=      5-min Rain = 0
KMC4 200610Z 11004KT 05/M03 A3032 RMK A01 T00541029  RH  055%=      5-min Rain = 0
KMC4 200611Z 11004KT 05/M03 A3032 RMK A01 T00541030  RH  055%=      5-min Rain = 0
KMC4 200612Z 11004KT 05/M03 A3032 RMK A01 T00541030  RH  055%=      5-min Rain = 0
KMC4 200613Z 11003KT 05/M03 A3032 RMK A01 T00541030  RH  055%=      5-min Rain = 0
KMC4 200614Z 11003KT 05/M03 A3032 RMK A01 T00541030  RH  055%=      5-min Rain = 0
KMC4 200615Z 11003KT 05/M03 A3032 RMK A01 T00541030  RH  055%=      5-min Rain = 0
KMC4 200616Z 10002KT 06/M03 A3032 RMK A01 T00551030  RH  054%=      5-min Rain = 0
KMC4 200617Z 09003KT 05/M03 A3032 RMK A01 T00541030  RH  054%=      5-min Rain = 0
KMC4 200618Z 09003KT 05/M03 A3033 RMK A01 T00541030  RH  055%=      5-min Rain = 0
KMC4 200619Z 08003KT 05/M03 A3033 RMK A01 T00541030  RH  055%=      5-min Rain = 0
KMC4 200620Z 08003KT 05/M03 A3033 RMK A01 T00541030  RH  055%=      5-min Rain = 0
KMC4 200621Z 08003KT 05/M03 A3033 RMK A01 T00541030  RH  055%=      5-min Rain = 0
KMC4 200622Z 07002KT 05/M03 A3033 RMK A01 T00531030  RH  055%=      5-min Rain = 0
KMC4 200623Z 06002KT 05/M03 A3033 RMK A01 T00531030  RH  055%=      5-min Rain = 0
KMC4 200624Z 07002KT 05/M03 A3033 RMK A01 T00521030  RH  056%=      5-min Rain = 0
KMC4 200625Z 06003KT 05/M03 A3033 RMK A01 T00511029  RH  057%=      5-min Rain = 0
KMC4 200626Z 06003KT 05/M03 A3033 RMK A01 T00491029  RH  057%=      5-min Rain = 0
KMC4 200627Z 06002KT 05/M03 A3033 RMK A01 T00491030  RH  057%=      5-min Rain = 0
KMC4 200628Z 05002KT 05/M03 A3033 RMK A01 T00491029  RH  057%=      5-min Rain = 0
KMC4 200629Z 05002KT 05/M03 A3033 RMK A01 T00481030  RH  057%=      5-min Rain = 0
KMC4 200630Z 05002KT 05/M03 A3033 RMK A01 T00481030  RH  057%=      5-min Rain = 0
KMC4 200631Z 05002KT 05/M03 A3033 RMK A01 T00481030  RH  057%=      5-min Rain = 0
KMC4 200632Z 05002KT 05/M03 A3033 RMK A01 T00481030  RH  057%=      5-min Rain = 0
KMC4 200633Z 05001KT 05/M03 A3033 RMK A01 T00481029  RH  057%=      5-min Rain = 0
KMC4 200634Z 05001KT 05/M03 A3033 RMK A01 T00471028  RH  058%=      5-min Rain = 0
KMC4 200635Z 05000KT 05/M03 A3033 RMK A01 T00451029  RH  059%=      5-min Rain = 0
KMC4 200636Z 00000KT 04/M03 A3033 RMK A01 T00441029  RH  059%=      5-min Rain = 0
KMC4 200637Z 00000KT 04/M03 A3033 RMK A01 T00431029  RH  059%=      5-min Rain = 0
KMC4 200638Z 00000KT 04/M03 A3033 RMK A01 T00421029  RH  060%=      5-min Rain = 0
KMC4 200639Z 00000KT 04/M03 A3033 RMK A01 T00421029  RH  060%=      5-min Rain = 0
KMC4 200640Z 00000KT 04/M03 A3033 RMK A01 T00411030  RH  060%=      5-min Rain = 0
KMC4 200641Z 00000KT 04/M03 A3033 RMK A01 T00411030  RH  060%=      5-min Rain = 0
KMC4 200642Z 00000KT 04/M03 A3033 RMK A01 T00401030  RH  060%=      5-min Rain = 0
KMC4 200643Z 05000KT 04/M03 A3033 RMK A01 T00401030  RH  060%=      5-min Rain = 0
KMC4 200644Z 05001KT 04/M03 A3033 RMK A01 T00401030  RH  060%=      5-min Rain = 0
KMC4 200645Z 05001KT 04/M03 A3033 RMK A01 T00401028  RH  061%=      5-min Rain = 0
KMC4 200646Z 05001KT 04/M03 A3033 RMK A01 T00401026  RH  062%=      5-min Rain = 0
KMC4 200647Z 05001KT 04/M03 A3033 RMK A01 T00391026  RH  063%=      5-min Rain = 0
KMC4 200648Z 05001KT 04/M03 A3033 RMK A01 T00381026  RH  063%=      5-min Rain = 0
KMC4 200649Z 05001KT 04/M03 A3033 RMK A01 T00371026  RH  063%=      5-min Rain = 0
KMC4 200650Z 05001KT 04/M03 A3033 RMK A01 T00371026  RH  063%=      5-min Rain = 0
KMC4 200651Z 05000KT 04/M03 A3033 RMK A01 T00361027  RH  063%=      5-min Rain = 0
KMC4 200652Z 00000KT 04/M03 A3033 RMK A01 T00361027  RH  063%=      5-min Rain = 0
KMC4 200653Z 00000KT 04/M03 A3033 RMK A01 T00361027  RH  063%=      5-min Rain = 0
KMC4 200654Z 00000KT 04/M03 A3033 RMK A01 T00361027  RH  064%=      5-min Rain = 0
KMC4 200655Z 00000KT 04/M03 A3033 RMK A01 T00351028  RH  063%=      5-min Rain = 0
KMC4 200656Z 17001KT 03/M03 A3033 RMK A01 T00341028  RH  063%=      5-min Rain = 0
KMC4 200657Z 18001KT 03/M03 A3033 RMK A01 T00341028  RH  064%=      5-min Rain = 0
KMC4 200658Z 18000KT 03/M03 A3032 RMK A01 T00331029  RH  064%=      5-min Rain = 0
KMC4 200659Z 16001KT 03/M03 A3032 RMK A01 T00331029  RH  063%=      5-min Rain = 0
KMC4 200700Z 16000KT 03/M03 A3032 RMK A01 T00331029  RH  064%=      5-min Rain = 0
KMC4 200701Z 00000KT 03/M03 A3032 RMK A01 T00331029  RH  064%=      5-min Rain = 0
KMC4 200702Z 00000KT 03/M03 A3032 RMK A01 T00331029  RH  064%=      5-min Rain = 0
KMC4 200703Z 00000KT 03/M03 A3032 RMK A01 T00341030  RH  063%=      5-min Rain = 0
KMC4 200704Z 11000KT 03/M03 A3032 RMK A01 T00341030  RH  063%=      5-min Rain = 0
KMC4 200705Z 11001KT 04/M03 A3032 RMK A01 T00351029  RH  063%=      5-min Rain = 0
KMC4 200706Z 11001KT 03/M03 A3032 RMK A01 T00341028  RH  063%=      5-min Rain = 0
KMC4 200707Z 11001KT 03/M03 A3032 RMK A01 T00341028  RH  064%=      5-min Rain = 0
KMC4 200708Z 11001KT 03/M03 A3032 RMK A01 T00341027  RH  064%=      5-min Rain = 0
KMC4 200709Z 10002KT 03/M03 A3032 RMK A01 T00341028  RH  064%=      5-min Rain = 0
KMC4 200710Z 11002KT 03/M03 A3032 RMK A01 T00331028  RH  064%=      5-min Rain = 0
KMC4 200711Z 10002KT 03/M03 A3032 RMK A01 T00331028  RH  065%=      5-min Rain = 0
KMC4 200712Z 10002KT 03/M03 A3032 RMK A01 T00321029  RH  064%=      5-min Rain = 0
KMC4 200713Z 10002KT 03/M03 A3032 RMK A01 T00321029  RH  065%=      5-min Rain = 0
KMC4 200714Z 09002KT 03/M03 A3032 RMK A01 T00321029  RH  065%=      5-min Rain = 0
KMC4 200715Z 08002KT 03/M03 A3032 RMK A01 T00321028  RH  065%=      5-min Rain = 0
KMC4 200716Z 08003KT 03/M03 A3032 RMK A01 T00311028  RH  065%=      5-min Rain = 0
KMC4 200717Z 08003KT 03/M03 A3032 RMK A01 T00311028  RH  065%=      5-min Rain = 0
KMC4 200718Z 09003KT 03/M03 A3032 RMK A01 T00311028  RH  065%=      5-min Rain = 0
KMC4 200719Z 09002KT 03/M03 A3032 RMK A01 T00311028  RH  065%=      5-min Rain = 0
KMC4 200720Z 08002KT 03/M03 A3031 RMK A01 T00321028  RH  065%=      5-min Rain = 0
KMC4 200721Z 08002KT 03/M03 A3031 RMK A01 T00321029  RH  065%=      5-min Rain = 0
KMC4 200722Z 08002KT 03/M03 A3031 RMK A01 T00321029  RH  064%=      5-min Rain = 0
KMC4 200723Z 08001KT 03/M03 A3031 RMK A01 T00331030  RH  064%=      5-min Rain = 0
KMC4 200724Z 09001KT 03/M03 A3031 RMK A01 T00331030  RH  063%=      5-min Rain = 0
KMC4 200725Z 09001KT 03/M03 A3031 RMK A01 T00341030  RH  063%=      5-min Rain = 0
KMC4 200726Z 09001KT 04/M03 A3031 RMK A01 T00351031  RH  062%=      5-min Rain = 0
KMC4 200727Z 09001KT 04/M03 A3031 RMK A01 T00361030  RH  062%=      5-min Rain = 0
KMC4 200728Z 08001KT 04/M03 A3031 RMK A01 T00351029  RH  063%=      5-min Rain = 0
KMC4 200729Z 08001KT 03/M03 A3031 RMK A01 T00341027  RH  064%=      5-min Rain = 0
KMC4 200730Z 07001KT 03/M03 A3031 RMK A01 T00331027  RH  065%=      5-min Rain = 0
KMC4 200731Z 05002KT 03/M03 A3031 RMK A01 T00321027  RH  065%=      5-min Rain = 0
KMC4 200732Z 05002KT 03/M03 A3031 RMK A01 T00321028  RH  065%=      5-min Rain = 0
KMC4 200733Z 04002KT 03/M03 A3031 RMK A01 T00311030  RH  064%=      5-min Rain = 0
KMC4 200734Z 04003KT 03/M03 A3031 RMK A01 T00331031  RH  063%=      5-min Rain = 0
KMC4 200735Z 05003KT 03/M03 A3031 RMK A01 T00341030  RH  063%=      5-min Rain = 0
KMC4 200736Z 05003KT 03/M03 A3031 RMK A01 T00341029  RH  064%=      5-min Rain = 0
KMC4 200737Z 05004KT 03/M03 A303 RMK A01 T00331029  RH  064%=      5-min Rain = 0
KMC4 200738Z 04004KT 03/M03 A303 RMK A01 T00321029  RH  065%=      5-min Rain = 0
KMC4 200739Z 04004KT 03/M03 A303 RMK A01 T00311029  RH  065%=      5-min Rain = 0
KMC4 200740Z 03004KT 03/M03 A303 RMK A01 T00301030  RH  065%=      5-min Rain = 0
KMC4 200741Z 04004KT 03/M03 A303 RMK A01 T00301030  RH  064%=      5-min Rain = 0
KMC4 200742Z 04004KT 03/M03 A303 RMK A01 T00301030  RH  065%=      5-min Rain = 0
KMC4 200743Z 04004KT 03/M03 A303 RMK A01 T00291031  RH  065%=      5-min Rain = 0
KMC4 200744Z 03004KT 03/M03 A303 RMK A01 T00291031  RH  065%=      5-min Rain = 0
KMC4 200745Z 03004KT 03/M03 A303 RMK A01 T00291031  RH  064%=      5-min Rain = 0
KMC4 200746Z 03004KT 03/M03 A303 RMK A01 T00291032  RH  064%=      5-min Rain = 0
KMC4 200747Z 03003KT 03/M03 A303 RMK A01 T00301032  RH  064%=      5-min Rain = 0
KMC4 200748Z 03003KT 03/M03 A303 RMK A01 T00301033  RH  063%=      5-min Rain = 0
KMC4 200749Z 04003KT 03/M03 A303 RMK A01 T00311033  RH  063%=      5-min Rain = 0
KMC4 200750Z 04004KT 03/M03 A303 RMK A01 T00311033  RH  063%=      5-min Rain = 0
KMC4 200751Z 05004KT 03/M03 A303 RMK A01 T00321033  RH  062%=      5-min Rain = 0
KMC4 200752Z 06003KT 03/M03 A303 RMK A01 T00331033  RH  062%=      5-min Rain = 0
KMC4 200753Z 06003KT 03/M03 A303 RMK A01 T00331032  RH  062%=      5-min Rain = 0
KMC4 200754Z 07003KT 03/M03 A303 RMK A01 T00331031  RH  063%=      5-min Rain = 0
KMC4 200755Z 08003KT 03/M03 A303 RMK A01 T00331030  RH  063%=      5-min Rain = 0
KMC4 200756Z 08002KT 03/M03 A303 RMK A01 T00321031  RH  063%=      5-min Rain = 0
KMC4 200757Z 09001KT 03/M03 A303 RMK A01 T00311031  RH  064%=      5-min Rain = 0
KMC4 200758Z 09000KT 03/M03 A303 RMK A01 T00311031  RH  064%=      5-min Rain = 0
KMC4 200759Z 05000KT 03/M03 A303 RMK A01 T00301032  RH  063%=      5-min Rain = 0
KMC4 200800Z 04002KT 03/M03 A303 RMK A01 T00311033  RH  063%=      5-min Rain = 0
KMC4 200801Z 04002KT 03/M03 A303 RMK A01 T00301032  RH  063%=      5-min Rain = 0
KMC4 200802Z 05002KT 03/M03 A303 RMK A01 T00301032  RH  064%=      5-min Rain = 0
KMC4 200803Z 04003KT 03/M03 A303 RMK A01 T00301032  RH  064%=      5-min Rain = 0
KMC4 200804Z 05003KT 03/M03 A303 RMK A01 T00311033  RH  063%=      5-min Rain = 0
KMC4 200805Z 05002KT 03/M03 A303 RMK A01 T00331033  RH  062%=      5-min Rain = 0
KMC4 200806Z 04002KT 03/M03 A303 RMK A01 T00341033  RH  062%=      5-min Rain = 0
KMC4 200807Z 05003KT 03/M03 A303 RMK A01 T00341033  RH  062%=      5-min Rain = 0
KMC4 200808Z 05003KT 03/M03 A303 RMK A01 T00341033  RH  062%=      5-min Rain = 0
KMC4 200809Z 06004KT 04/M03 A303 RMK A01 T00351032  RH  062%=      5-min Rain = 0
KMC4 200810Z 06004KT 04/M03 A303 RMK A01 T00351031  RH  062%=      5-min Rain = 0
KMC4 200811Z 06004KT 04/M03 A303 RMK A01 T00351030  RH  062%=      5-min Rain = 0
KMC4 200812Z 05003KT 04/M03 A303 RMK A01 T00351031  RH  062%=      5-min Rain = 0
KMC4 200813Z 05004KT 04/M03 A303 RMK A01 T00361031  RH  061%=      5-min Rain = 0
KMC4 200814Z 05004KT 04/M03 A303 RMK A01 T00371031  RH  061%=      5-min Rain = 0
KMC4 200815Z 05004KT 04/M03 A303 RMK A01 T00371030  RH  061%=      5-min Rain = 0
KMC4 200816Z 05004KT 04/M03 A303 RMK A01 T00391030  RH  061%=      5-min Rain = 0
KMC4 200817Z 05004KT 04/M03 A303 RMK A01 T00401031  RH  060%=      5-min Rain = 0
KMC4 200818Z 06003KT 04/M03 A303 RMK A01 T00411030  RH  060%=      5-min Rain = 0
KMC4 200819Z 05004KT 04/M03 A303 RMK A01 T00411030  RH  060%=      5-min Rain = 0
KMC4 200820Z 05005KT 04/M03 A303 RMK A01 T00411030  RH  060%=      5-min Rain = 0
KMC4 200821Z 05005KT 04/M03 A303 RMK A01 T00411030  RH  060%=      5-min Rain = 0
KMC4 200822Z 05005KT 04/M03 A303 RMK A01 T00411030  RH  060%=      5-min Rain = 0
KMC4 200823Z 05005KT 04/M03 A303 RMK A01 T00411030  RH  060%=      5-min Rain = 0
KMC4 200824Z 05004KT 04/M03 A303 RMK A01 T00411030  RH  060%=      5-min Rain = 0
KMC4 200825Z 05005KT 04/M03 A303 RMK A01 T00421030  RH  060%=      5-min Rain = 0
KMC4 200826Z 05005KT 04/M03 A303 RMK A01 T00421030  RH  059%=      5-min Rain = 0
KMC4 200827Z 05005KT 04/M03 A303 RMK A01 T00431030  RH  059%=      5-min Rain = 0
KMC4 200828Z 05005KT 04/M03 A303 RMK A01 T00431030  RH  059%=      5-min Rain = 0
KMC4 200829Z 05006KT 04/M03 A303 RMK A01 T00431030  RH  059%=      5-min Rain = 0
KMC4 200830Z 05006KT 04/M03 A303 RMK A01 T00441030  RH  059%=      5-min Rain = 0
KMC4 200831Z 05006KT 05/M03 A303 RMK A01 T00451029  RH  059%=      5-min Rain = 0
KMC4 200832Z 04006KT 05/M03 A303 RMK A01 T00451029  RH  059%=      5-min Rain = 0
KMC4 200833Z 04005KT 05/M03 A303 RMK A01 T00451029  RH  059%=      5-min Rain = 0
KMC4 200834Z 04005KT 04/M03 A303 RMK A01 T00441029  RH  059%=      5-min Rain = 0
KMC4 200835Z 05005KT 04/M03 A303 RMK A01 T00441029  RH  059%=      5-min Rain = 0
KMC4 200836Z 05005KT 04/M03 A303 RMK A01 T00441028  RH  060%=      5-min Rain = 0
KMC4 200837Z 05005KT 04/M03 A303 RMK A01 T00431028  RH  060%=      5-min Rain = 0
KMC4 200838Z 05005KT 04/M03 A303 RMK A01 T00431028  RH  060%=      5-min Rain = 0
KMC4 200839Z 05006KT 04/M03 A303 RMK A01 T00431028  RH  060%=      5-min Rain = 0
KMC4 200840Z 05006KT 04/M03 A303 RMK A01 T00431028  RH  060%=      5-min Rain = 0
KMC4 200841Z 05007KT 04/M03 A303 RMK A01 T00431028  RH  060%=      5-min Rain = 0
KMC4 200842Z 05006KT 04/M03 A303 RMK A01 T00431028  RH  060%=      5-min Rain = 0
KMC4 200843Z 06007KT 04/M03 A303 RMK A01 T00441027  RH  060%=      5-min Rain = 0
KMC4 200844Z 05007KT 04/M03 A303 RMK A01 T00441027  RH  060%=      5-min Rain = 0
KMC4 200845Z 05007KT 04/M03 A303 RMK A01 T00441028  RH  060%=      5-min Rain = 0
KMC4 200846Z 06006KT 04/M03 A303 RMK A01 T00441028  RH  060%=      5-min Rain = 0
KMC4 200847Z 05006KT 04/M03 A3029 RMK A01 T00441028  RH  060%=      5-min Rain = 0
KMC4 200848Z 06006KT 04/M03 A3029 RMK A01 T00441028  RH  059%=      5-min Rain = 0
KMC4 200849Z 06006KT 04/M03 A3029 RMK A01 T00441028  RH  060%=      5-min Rain = 0
KMC4 200850Z 05005KT 04/M03 A3029 RMK A01 T00441028  RH  060%=      5-min Rain = 0
KMC4 200851Z 06005KT 04/M03 A3029 RMK A01 T00441028  RH  060%=      5-min Rain = 0
KMC4 200852Z 06005KT 04/M03 A3029 RMK A01 T00441028  RH  060%=      5-min Rain = 0
KMC4 200853Z 05005KT 04/M03 A3029 RMK A01 T00441028  RH  060%=      5-min Rain = 0
KMC4 200854Z 05006KT 04/M03 A3029 RMK A01 T00431028  RH  060%=      5-min Rain = 0
KMC4 200855Z 05006KT 04/M03 A303 RMK A01 T00431028  RH  060%=      5-min Rain = 0
KMC4 200856Z 05006KT 04/M03 A303 RMK A01 T00441028  RH  060%=      5-min Rain = 0
KMC4 200857Z 06006KT 04/M03 A303 RMK A01 T00441028  RH  060%=      5-min Rain = 0
KMC4 200858Z 06006KT 04/M03 A303 RMK A01 T00441028  RH  060%=      5-min Rain = 0
KMC4 200859Z 05006KT 04/M03 A303 RMK A01 T00441028  RH  060%=      5-min Rain = 0
KMC4 200900Z 05005KT 04/M03 A303 RMK A01 T00441028  RH  060%=      5-min Rain = 0
KMC4 200901Z 05004KT 04/M03 A303 RMK A01 T00441028  RH  060%=      5-min Rain = 0
KMC4 200902Z 05004KT 04/M03 A303 RMK A01 T00441028  RH  060%=      5-min Rain = 0
KMC4 200903Z 05004KT 04/M03 A303 RMK A01 T00441027  RH  060%=      5-min Rain = 0
KMC4 200904Z 05003KT 04/M03 A303 RMK A01 T00441028  RH  060%=      5-min Rain = 0
KMC4 200905Z 05003KT 04/M03 A303 RMK A01 T00441028  RH  060%=      5-min Rain = 0
KMC4 200906Z 05004KT 04/M03 A303 RMK A01 T00441028  RH  060%=      5-min Rain = 0
KMC4 200907Z 05004KT 04/M03 A303 RMK A01 T00441028  RH  060%=      5-min Rain = 0
KMC4 200908Z 06005KT 04/M03 A303 RMK A01 T00441028  RH  060%=      5-min Rain = 0
KMC4 200909Z 06005KT 04/M03 A303 RMK A01 T00431028  RH  060%=      5-min Rain = 0
KMC4 200910Z 06004KT 04/M03 A303 RMK A01 T00431028  RH  060%=      5-min Rain = 0
KMC4 200911Z 06005KT 04/M03 A303 RMK A01 T00431028  RH  060%=      5-min Rain = 0
KMC4 200912Z 06005KT 04/M03 A303 RMK A01 T00431028  RH  060%=      5-min Rain = 0
KMC4 200913Z 06005KT 04/M03 A303 RMK A01 T00431028  RH  060%=      5-min Rain = 0
KMC4 200914Z 06006KT 04/M03 A303 RMK A01 T00431028  RH  060%=      5-min Rain = 0
KMC4 200915Z 05005KT 04/M03 A303 RMK A01 T00441027  RH  060%=      5-min Rain = 0
KMC4 200916Z 05005KT 04/M03 A303 RMK A01 T00441027  RH  060%=      5-min Rain = 0
KMC4 200917Z 06005KT 04/M03 A303 RMK A01 T00441027  RH  060%=      5-min Rain = 0
KMC4 200918Z 06005KT 04/M03 A303 RMK A01 T00441028  RH  060%=      5-min Rain = 0
KMC4 200919Z 06006KT 04/M03 A303 RMK A01 T00441027  RH  060%=      5-min Rain = 0
KMC4 200920Z 06006KT 04/M03 A303 RMK A01 T00441028  RH  060%=      5-min Rain = 0
KMC4 200921Z 07006KT 04/M03 A303 RMK A01 T00441028  RH  059%=      5-min Rain = 0
KMC4 200922Z 07006KT 05/M03 A303 RMK A01 T00451027  RH  059%=      5-min Rain = 0
KMC4 200923Z 06006KT 05/M03 A303 RMK A01 T00461027  RH  059%=      5-min Rain = 0
KMC4 200924Z 06006KT 05/M03 A303 RMK A01 T00461028  RH  059%=      5-min Rain = 0
KMC4 200925Z 06006KT 05/M03 A303 RMK A01 T00471028  RH  058%=      5-min Rain = 0
KMC4 200926Z 06005KT 05/M03 A303 RMK A01 T00471028  RH  058%=      5-min Rain = 0
KMC4 200927Z 06005KT 05/M03 A303 RMK A01 T00471027  RH  059%=      5-min Rain = 0
KMC4 200928Z 05004KT 05/M03 A303 RMK A01 T00461028  RH  059%=      5-min Rain = 0
KMC4 200929Z 05004KT 05/M03 A303 RMK A01 T00451028  RH  059%=      5-min Rain = 0
KMC4 200930Z 05004KT 05/M03 A303 RMK A01 T00451028  RH  059%=      5-min Rain = 0
KMC4 200931Z 05004KT 05/M03 A303 RMK A01 T00451027  RH  059%=      5-min Rain = 0
KMC4 200932Z 05004KT 04/M03 A303 RMK A01 T00441028  RH  060%=      5-min Rain = 0
KMC4 200933Z 05004KT 04/M03 A303 RMK A01 T00441028  RH  060%=      5-min Rain = 0
KMC4 200934Z 06005KT 04/M03 A303 RMK A01 T00431028  RH  060%=      5-min Rain = 0
KMC4 200935Z 06005KT 04/M03 A303 RMK A01 T00421028  RH  060%=      5-min Rain = 0
KMC4 200936Z 06005KT 04/M03 A303 RMK A01 T00421028  RH  060%=      5-min Rain = 0
KMC4 200937Z 06006KT 04/M03 A303 RMK A01 T00421028  RH  061%=      5-min Rain = 0
KMC4 200938Z 06006KT 04/M03 A303 RMK A01 T00411028  RH  061%=      5-min Rain = 0
KMC4 200939Z 07006KT 04/M03 A303 RMK A01 T00411028  RH  061%=      5-min Rain = 0
KMC4 200940Z 07005KT 04/M03 A303 RMK A01 T00421028  RH  060%=      5-min Rain = 0
KMC4 200941Z 08006KT 04/M03 A303 RMK A01 T00431028  RH  060%=      5-min Rain = 0
KMC4 200942Z 08006KT 04/M03 A303 RMK A01 T00431028  RH  060%=      5-min Rain = 0
KMC4 200943Z 07006KT 04/M03 A303 RMK A01 T00431028  RH  060%=      5-min Rain = 0
KMC4 200944Z 08006KT 04/M03 A303 RMK A01 T00431028  RH  060%=      5-min Rain = 0
KMC4 200945Z 08006KT 04/M03 A303 RMK A01 T00431027  RH  060%=      5-min Rain = 0
KMC4 200946Z 08006KT 04/M03 A303 RMK A01 T00431028  RH  060%=      5-min Rain = 0
KMC4 200947Z 08005KT 04/M03 A303 RMK A01 T00421028  RH  060%=      5-min Rain = 0
KMC4 200948Z 08005KT 04/M03 A303 RMK A01 T00421028  RH  060%=      5-min Rain = 0
KMC4 200949Z 08004KT 04/M03 A303 RMK A01 T00421028  RH  061%=      5-min Rain = 0
KMC4 200950Z 07004KT 04/M03 A303 RMK A01 T00421028  RH  061%=      5-min Rain = 0
KMC4 200951Z 08004KT 04/M03 A303 RMK A01 T00411028  RH  061%=      5-min Rain = 0
KMC4 200952Z 08004KT 04/M03 A303 RMK A01 T00411028  RH  061%=      5-min Rain = 0
KMC4 200953Z 08004KT 04/M03 A303 RMK A01 T00411029  RH  060%=      5-min Rain = 0
KMC4 200954Z 07003KT 04/M03 A303 RMK A01 T00411029  RH  060%=      5-min Rain = 0
KMC4 200955Z 06003KT 04/M03 A303 RMK A01 T00411029  RH  060%=      5-min Rain = 0
KMC4 200956Z 06003KT 04/M03 A303 RMK A01 T00411028  RH  061%=      5-min Rain = 0
KMC4 200957Z 05003KT 04/M03 A303 RMK A01 T00411027  RH  061%=      5-min Rain = 0
KMC4 200958Z 05004KT 04/M03 A303 RMK A01 T00401027  RH  062%=      5-min Rain = 0
KMC4 200959Z 05004KT 04/M03 A303 RMK A01 T00401027  RH  062%=      5-min Rain = 0
KMC4 201000Z 05004KT 04/M03 A303 RMK A01 T00401027  RH  062%=      5-min Rain = 0
KMC4 201001Z 05004KT 04/M03 A303 RMK A01 T00401026  RH  062%=      5-min Rain = 0
KMC4 201002Z 05003KT 04/M03 A303 RMK A01 T00391026  RH  062%=      5-min Rain = 0
KMC4 201003Z 05004KT 04/M03 A303 RMK A01 T00391026  RH  062%=      5-min Rain = 0
KMC4 201004Z 04004KT 04/M03 A303 RMK A01 T00391027  RH  062%=      5-min Rain = 0
KMC4 201005Z 04004KT 04/M03 A303 RMK A01 T00391027  RH  062%=      5-min Rain = 0
KMC4 201006Z 04003KT 04/M03 A303 RMK A01 T00391027  RH  062%=      5-min Rain = 0
KMC4 201007Z 04004KT 04/M03 A303 RMK A01 T00391026  RH  062%=      5-min Rain = 0
KMC4 201008Z 04005KT 04/M03 A303 RMK A01 T00381027  RH  063%=      5-min Rain = 0
KMC4 201009Z 04005KT 04/M03 A303 RMK A01 T00381027  RH  063%=      5-min Rain = 0
KMC4 201010Z 04005KT 04/M03 A303 RMK A01 T00381026  RH  063%=      5-min Rain = 0
KMC4 201011Z 04005KT 04/M03 A303 RMK A01 T00381026  RH  063%=      5-min Rain = 0
KMC4 201012Z 05005KT 04/M03 A303 RMK A01 T00381026  RH  063%=      5-min Rain = 0
KMC4 201013Z 05005KT 04/M03 A303 RMK A01 T00381026  RH  063%=      5-min Rain = 0
KMC4 201014Z 04005KT 04/M03 A303 RMK A01 T00381026  RH  063%=      5-min Rain = 0
KMC4 201015Z 05004KT 04/M03 A303 RMK A01 T00371027  RH  063%=      5-min Rain = 0
KMC4 201016Z 05005KT 04/M03 A303 RMK A01 T00371026  RH  063%=      5-min Rain = 0
KMC4 201017Z 05004KT 04/M03 A303 RMK A01 T00371026  RH  063%=      5-min Rain = 0
KMC4 201018Z 05005KT 04/M03 A303 RMK A01 T00371027  RH  063%=      5-min Rain = 0
KMC4 201019Z 05005KT 04/M03 A303 RMK A01 T00371026  RH  063%=      5-min Rain = 0
KMC4 201020Z 04005KT 04/M03 A303 RMK A01 T00371027  RH  063%=      5-min Rain = 0
KMC4 201021Z 04005KT 04/M03 A303 RMK A01 T00371027  RH  063%=      5-min Rain = 0
KMC4 201022Z 05005KT 04/M03 A303 RMK A01 T00371026  RH  063%=      5-min Rain = 0
KMC4 201023Z 05005KT 04/M03 A303 RMK A01 T00371026  RH  063%=      5-min Rain = 0
KMC4 201024Z 05005KT 04/M03 A303 RMK A01 T00371026  RH  063%=      5-min Rain = 0
KMC4 201025Z 05004KT 04/M03 A303 RMK A01 T00361026  RH  063%=      5-min Rain = 0
KMC4 201026Z 05004KT 04/M03 A303 RMK A01 T00361026  RH  064%=      5-min Rain = 0
KMC4 201027Z 06004KT 04/M03 A303 RMK A01 T00361026  RH  064%=      5-min Rain = 0
KMC4 201028Z 06004KT 04/M03 A303 RMK A01 T00361026  RH  064%=      5-min Rain = 0
KMC4 201029Z 07004KT 04/M03 A303 RMK A01 T00361026  RH  064%=      5-min Rain = 0
KMC4 201030Z 06005KT 04/M03 A303 RMK A01 T00361026  RH  064%=      5-min Rain = 0
KMC4 201031Z 06005KT 04/M03 A303 RMK A01 T00361027  RH  064%=      5-min Rain = 0
KMC4 201032Z 05004KT 04/M03 A303 RMK A01 T00361026  RH  064%=      5-min Rain = 0
KMC4 201033Z 05004KT 04/M03 A303 RMK A01 T00361027  RH  063%=      5-min Rain = 0
KMC4 201034Z 05004KT 04/M03 A303 RMK A01 T00361026  RH  064%=      5-min Rain = 0
KMC4 201035Z 05004KT 04/M03 A3029 RMK A01 T00361026  RH  064%=      5-min Rain = 0
KMC4 201036Z 05005KT 04/M03 A3029 RMK A01 T00361026  RH  064%=      5-min Rain = 0
KMC4 201037Z 05004KT 04/M03 A303 RMK A01 T00361026  RH  064%=      5-min Rain = 0
KMC4 201038Z 06004KT 04/M03 A303 RMK A01 T00361026  RH  064%=      5-min Rain = 0
KMC4 201039Z 06004KT 04/M03 A303 RMK A01 T00361027  RH  064%=      5-min Rain = 0
KMC4 201040Z 06005KT 04/M03 A303 RMK A01 T00361027  RH  064%=      5-min Rain = 0
KMC4 201041Z 06004KT 04/M03 A303 RMK A01 T00361026  RH  064%=      5-min Rain = 0
KMC4 201042Z 06004KT 04/M03 A3029 RMK A01 T00361026  RH  064%=      5-min Rain = 0
KMC4 201043Z 06005KT 04/M03 A3029 RMK A01 T00361026  RH  064%=      5-min Rain = 0
KMC4 201044Z 07004KT 04/M03 A3029 RMK A01 T00371026  RH  063%=      5-min Rain = 0
KMC4 201045Z 06004KT 04/M03 A3029 RMK A01 T00371025  RH  064%=      5-min Rain = 0
KMC4 201046Z 06004KT 04/M03 A3029 RMK A01 T00371026  RH  064%=      5-min Rain = 0
KMC4 201047Z 06005KT 04/M03 A3029 RMK A01 T00361026  RH  064%=      5-min Rain = 0
KMC4 201048Z 06005KT 04/M03 A3029 RMK A01 T00361026  RH  064%=      5-min Rain = 0
KMC4 201049Z 06004KT 04/M03 A3029 RMK A01 T00361026  RH  064%=      5-min Rain = 0
KMC4 201050Z 06005KT 04/M03 A3029 RMK A01 T00361026  RH  064%=      5-min Rain = 0
KMC4 201051Z 07004KT 04/M03 A3029 RMK A01 T00351025  RH  064%=      5-min Rain = 0
KMC4 201052Z 07004KT 04/M03 A3029 RMK A01 T00361026  RH  064%=      5-min Rain = 0
KMC4 201053Z 07004KT 04/M03 A3029 RMK A01 T00371025  RH  064%=      5-min Rain = 0
KMC4 201054Z 07004KT 04/M03 A3029 RMK A01 T00371026  RH  063%=      5-min Rain = 0
KMC4 201055Z 07004KT 04/M03 A3029 RMK A01 T00381026  RH  063%=      5-min Rain = 0
KMC4 201056Z 07004KT 04/M03 A3029 RMK A01 T00381026  RH  063%=      5-min Rain = 0
KMC4 201057Z 06004KT 04/M03 A3029 RMK A01 T00381026  RH  063%=      5-min Rain = 0
KMC4 201058Z 06004KT 04/M03 A3029 RMK A01 T00381026  RH  063%=      5-min Rain = 0
KMC4 201059Z 06005KT 04/M03 A3029 RMK A01 T00381025  RH  063%=      5-min Rain = 0
KMC4 201100Z 06004KT 04/M03 A3029 RMK A01 T00371025  RH  064%=      5-min Rain = 0
KMC4 201101Z 06004KT 04/M03 A3029 RMK A01 T00361025  RH  064%=      5-min Rain = 0
KMC4 201102Z 06004KT 04/M03 A3029 RMK A01 T00351026  RH  064%=      5-min Rain = 0
KMC4 201103Z 06004KT 04/M03 A3029 RMK A01 T00351026  RH  064%=      5-min Rain = 0
KMC4 201104Z 06003KT 04/M03 A3029 RMK A01 T00361025  RH  064%=      5-min Rain = 0
KMC4 201105Z 06004KT 04/M03 A3029 RMK A01 T00351026  RH  064%=      5-min Rain = 0
KMC4 201106Z 06004KT 04/M03 A3029 RMK A01 T00351026  RH  064%=      5-min Rain = 0
KMC4 201107Z 06005KT 04/M03 A3029 RMK A01 T00361026  RH  064%=      5-min Rain = 0
KMC4 201108Z 06005KT 04/M03 A3029 RMK A01 T00361026  RH  064%=      5-min Rain = 0
KMC4 201109Z 06004KT 04/M03 A3029 RMK A01 T00361025  RH  064%=      5-min Rain = 0
KMC4 201110Z 07005KT 04/M03 A3029 RMK A01 T00361025  RH  064%=      5-min Rain = 0
KMC4 201111Z 07004KT 04/M03 A3029 RMK A01 T00361025  RH  064%=      5-min Rain = 0
KMC4 201112Z 07005KT 04/M03 A3029 RMK A01 T00361026  RH  064%=      5-min Rain = 0
KMC4 201113Z 07004KT 04/M03 A3029 RMK A01 T00371026  RH  064%=      5-min Rain = 0
KMC4 201114Z 07005KT 04/M03 A3029 RMK A01 T00371025  RH  064%=      5-min Rain = 0
KMC4 201115Z 07004KT 04/M03 A3029 RMK A01 T00361025  RH  064%=      5-min Rain = 0
KMC4 201116Z 07004KT 04/M03 A3029 RMK A01 T00351026  RH  064%=      5-min Rain = 0
KMC4 201117Z 07004KT 04/M03 A3029 RMK A01 T00351026  RH  064%=      5-min Rain = 0
KMC4 201118Z 07005KT 04/M03 A3029 RMK A01 T00351026  RH  064%=      5-min Rain = 0
KMC4 201119Z 07005KT 04/M03 A3028 RMK A01 T00351026  RH  064%=      5-min Rain = 0
KMC4 201120Z 06004KT 04/M03 A3028 RMK A01 T00361025  RH  064%=      5-min Rain = 0
KMC4 201121Z 06004KT 04/M03 A3028 RMK A01 T00361025  RH  064%=      5-min Rain = 0
KMC4 201122Z 06004KT 04/M03 A3028 RMK A01 T00351025  RH  065%=      5-min Rain = 0
KMC4 201123Z 06005KT 04/M03 A3028 RMK A01 T00351026  RH  065%=      5-min Rain = 0
KMC4 201124Z 07004KT 04/M03 A3028 RMK A01 T00351026  RH  064%=      5-min Rain = 0
KMC4 201125Z 07004KT 04/M03 A3028 RMK A01 T00351026  RH  065%=      5-min Rain = 0
KMC4 201126Z 07004KT 03/M03 A3028 RMK A01 T00341025  RH  065%=      5-min Rain = 0
KMC4 201127Z 07005KT 03/M03 A3028 RMK A01 T00331026  RH  065%=      5-min Rain = 0
KMC4 201128Z 07005KT 03/M03 A3028 RMK A01 T00331025  RH  066%=      5-min Rain = 0
KMC4 201129Z 07005KT 03/M03 A3028 RMK A01 T00331025  RH  066%=      5-min Rain = 0
KMC4 201130Z 07005KT 03/M03 A3028 RMK A01 T00331025  RH  066%=      5-min Rain = 0
KMC4 201131Z 06005KT 03/M03 A3028 RMK A01 T00331025  RH  066%=      5-min Rain = 0
KMC4 201132Z 06006KT 03/M03 A3028 RMK A01 T00341025  RH  065%=      5-min Rain = 0
KMC4 201133Z 06005KT 03/M03 A3028 RMK A01 T00341025  RH  065%=      5-min Rain = 0
KMC4 201134Z 07005KT 04/M03 A3028 RMK A01 T00351025  RH  065%=      5-min Rain = 0
KMC4 201135Z 07006KT 04/M03 A3028 RMK A01 T00361025  RH  064%=      5-min Rain = 0
KMC4 201136Z 07005KT 04/M03 A3028 RMK A01 T00361025  RH  064%=      5-min Rain = 0
KMC4 201137Z 07006KT 04/M03 A3028 RMK A01 T00371025  RH  064%=      5-min Rain = 0
KMC4 201138Z 06006KT 04/M03 A3028 RMK A01 T00371025  RH  064%=      5-min Rain = 0
KMC4 201139Z 06007KT 04/M03 A3028 RMK A01 T00361026  RH  064%=      5-min Rain = 0
KMC4 201140Z 06006KT 04/M03 A3028 RMK A01 T00361025  RH  064%=      5-min Rain = 0
KMC4 201141Z 06005KT 04/M03 A3028 RMK A01 T00361025  RH  064%=      5-min Rain = 0
KMC4 201142Z 06005KT 04/M03 A3028 RMK A01 T00351025  RH  065%=      5-min Rain = 0
KMC4 201143Z 06004KT 03/M03 A3028 RMK A01 T00341026  RH  065%=      5-min Rain = 0
KMC4 201144Z 06005KT 03/M03 A3028 RMK A01 T00341025  RH  065%=      5-min Rain = 0
KMC4 201145Z 05005KT 03/M03 A3028 RMK A01 T00331025  RH  065%=      5-min Rain = 0
KMC4 201146Z 05004KT 03/M03 A3028 RMK A01 T00321025  RH  066%=      5-min Rain = 0
KMC4 201147Z 05005KT 03/M03 A3028 RMK A01 T00321025  RH  066%=      5-min Rain = 0
KMC4 201148Z 05005KT 03/M03 A3028 RMK A01 T00321025  RH  066%=      5-min Rain = 0
KMC4 201149Z 06005KT 03/M03 A3028 RMK A01 T00321025  RH  066%=      5-min Rain = 0
KMC4 201150Z 06005KT 03/M03 A3028 RMK A01 T00321025  RH  066%=      5-min Rain = 0
KMC4 201151Z 06005KT 03/M03 A3028 RMK A01 T00321025  RH  066%=      5-min Rain = 0
KMC4 201152Z 06005KT 03/M03 A3028 RMK A01 T00311025  RH  066%=      5-min Rain = 0
KMC4 201153Z 07004KT 03/M03 A3028 RMK A01 T00321026  RH  066%=      5-min Rain = 0
KMC4 201154Z 07005KT 03/M03 A3028 RMK A01 T00321025  RH  066%=      5-min Rain = 0
KMC4 201155Z 07005KT 03/M03 A3028 RMK A01 T00321025  RH  066%=      5-min Rain = 0
KMC4 201156Z 07005KT 03/M03 A3028 RMK A01 T00331025  RH  066%=      5-min Rain = 0
KMC4 201157Z 06005KT 03/M03 A3028 RMK A01 T00331025  RH  065%=      5-min Rain = 0
KMC4 201158Z 06006KT 04/M03 A3028 RMK A01 T00351025  RH  065%=      5-min Rain = 0
KMC4 201159Z 06005KT 04/M03 A3028 RMK A01 T00351025  RH  065%=      5-min Rain = 0
KMC4 201200Z 06005KT 04/M03 A3028 RMK A01 T00351025  RH  065%=      5-min Rain = 0
KMC4 201201Z 06005KT 04/M03 A3028 RMK A01 T00351025  RH  065%=      5-min Rain = 0
KMC4 201202Z 06005KT 03/M03 A3028 RMK A01 T00341025  RH  065%=      5-min Rain = 0
KMC4 201203Z 06005KT 03/M03 A3028 RMK A01 T00341025  RH  065%=      5-min Rain = 0
KMC4 201204Z 06005KT 03/M03 A3028 RMK A01 T00331025  RH  066%=      5-min Rain = 0
KMC4 201205Z 06005KT 03/M03 A3028 RMK A01 T00331025  RH  066%=      5-min Rain = 0
KMC4 201206Z 06005KT 03/M03 A3028 RMK A01 T00321025  RH  066%=      5-min Rain = 0
KMC4 201207Z 06005KT 03/M03 A3028 RMK A01 T00321025  RH  066%=      5-min Rain = 0
KMC4 201208Z 05005KT 03/M03 A3028 RMK A01 T00321025  RH  066%=      5-min Rain = 0
KMC4 201209Z 05004KT 03/M03 A3028 RMK A01 T00311025  RH  067%=      5-min Rain = 0
KMC4 201210Z 05006KT 03/M03 A3028 RMK A01 T00311025  RH  067%=      5-min Rain = 0
KMC4 201211Z 05005KT 03/M03 A3028 RMK A01 T00311025  RH  067%=      5-min Rain = 0
KMC4 201212Z 06005KT 03/M03 A3029 RMK A01 T00311025  RH  067%=      5-min Rain = 0
KMC4 201213Z 06005KT 03/M03 A3029 RMK A01 T00321025  RH  066%=      5-min Rain = 0
KMC4 201214Z 06005KT 03/M03 A3029 RMK A01 T00321025  RH  066%=      5-min Rain = 0
KMC4 201215Z 06005KT 03/M02 A3029 RMK A01 T00321024  RH  067%=      5-min Rain = 0
KMC4 201216Z 06005KT 03/M03 A3029 RMK A01 T00311025  RH  067%=      5-min Rain = 0
KMC4 201217Z 06005KT 03/M03 A3029 RMK A01 T00311025  RH  067%=      5-min Rain = 0
KMC4 201218Z 06005KT 03/M03 A3029 RMK A01 T00311025  RH  067%=      5-min Rain = 0
KMC4 201219Z 06005KT 03/M03 A3029 RMK A01 T00311025  RH  067%=      5-min Rain = 0
KMC4 201220Z 06005KT 03/M03 A3029 RMK A01 T00301025  RH  067%=      5-min Rain = 0
KMC4 201221Z 05004KT 03/M03 A3029 RMK A01 T00301025  RH  067%=      5-min Rain = 0
KMC4 201222Z 05006KT 03/M02 A3029 RMK A01 T00301024  RH  068%=      5-min Rain = 0
KMC4 201223Z 05006KT 03/M02 A3029 RMK A01 T00301024  RH  067%=      5-min Rain = 0
KMC4 201224Z 05005KT 03/M03 A3029 RMK A01 T00301025  RH  067%=      5-min Rain = 0
KMC4 201225Z 05005KT 03/M03 A3029 RMK A01 T00301025  RH  067%=      5-min Rain = 0
KMC4 201226Z 06005KT 03/M03 A3029 RMK A01 T00301025  RH  067%=      5-min Rain = 0
KMC4 201227Z 07005KT 03/M03 A3029 RMK A01 T00291025  RH  068%=      5-min Rain = 0
KMC4 201228Z 06005KT 03/M03 A3029 RMK A01 T00281025  RH  068%=      5-min Rain = 0
KMC4 201229Z 07005KT 03/M03 A3029 RMK A01 T00291025  RH  068%=      5-min Rain = 0
KMC4 201230Z 06005KT 03/M03 A3029 RMK A01 T00301025  RH  067%=      5-min Rain = 0
KMC4 201231Z 06005KT 03/M03 A3029 RMK A01 T00311025  RH  067%=      5-min Rain = 0
KMC4 201232Z 06006KT 03/M03 A3029 RMK A01 T00311025  RH  067%=      5-min Rain = 0
KMC4 201233Z 06005KT 03/M03 A3029 RMK A01 T00301025  RH  067%=      5-min Rain = 0
KMC4 201234Z 06005KT 03/M03 A3029 RMK A01 T00301025  RH  067%=      5-min Rain = 0
KMC4 201235Z 06006KT 03/M02 A3029 RMK A01 T00301024  RH  067%=      5-min Rain = 0
KMC4 201236Z 07006KT 03/M03 A3029 RMK A01 T00301025  RH  067%=      5-min Rain = 0
KMC4 201237Z 07006KT 03/M03 A3029 RMK A01 T00301025  RH  067%=      5-min Rain = 0
KMC4 201238Z 07006KT 03/M02 A3029 RMK A01 T00311024  RH  067%=      5-min Rain = 0
KMC4 201239Z 08006KT 03/M03 A3029 RMK A01 T00311025  RH  067%=      5-min Rain = 0
KMC4 201240Z 08005KT 03/M03 A3029 RMK A01 T00311025  RH  067%=      5-min Rain = 0
KMC4 201241Z 09005KT 03/M03 A3028 RMK A01 T00311025  RH  067%=      5-min Rain = 0
KMC4 201242Z 08005KT 03/M03 A3028 RMK A01 T00311025  RH  067%=      5-min Rain = 0
KMC4 201243Z 09005KT 03/M03 A3028 RMK A01 T00311025  RH  067%=      5-min Rain = 0
KMC4 201244Z 08005KT 03/M03 A3028 RMK A01 T00301025  RH  067%=      5-min Rain = 0
KMC4 201245Z 08005KT 03/M03 A3028 RMK A01 T00301025  RH  067%=      5-min Rain = 0
KMC4 201246Z 08005KT 03/M03 A3028 RMK A01 T00291025  RH  067%=      5-min Rain = 0
KMC4 201247Z 08005KT 03/M03 A3028 RMK A01 T00301025  RH  067%=      5-min Rain = 0
KMC4 201248Z 08005KT 03/M03 A3029 RMK A01 T00301025  RH  067%=      5-min Rain = 0
KMC4 201249Z 08005KT 03/M03 A3029 RMK A01 T00301025  RH  067%=      5-min Rain = 0
KMC4 201250Z 07005KT 03/M03 A3029 RMK A01 T00301025  RH  067%=      5-min Rain = 0
KMC4 201251Z 08005KT 03/M03 A3029 RMK A01 T00301025  RH  067%=      5-min Rain = 0
KMC4 201252Z 08004KT 03/M03 A3029 RMK A01 T00301025  RH  067%=      5-min Rain = 0
KMC4 201253Z 08005KT 03/M03 A3029 RMK A01 T00301025  RH  067%=      5-min Rain = 0
KMC4 201254Z 09005KT 03/M03 A3028 RMK A01 T00301025  RH  067%=      5-min Rain = 0
KMC4 201255Z 09005KT 03/M03 A3028 RMK A01 T00301025  RH  067%=      5-min Rain = 0
KMC4 201256Z 09005KT 03/M03 A3028 RMK A01 T00301025  RH  067%=      5-min Rain = 0
KMC4 201257Z 08005KT 03/M03 A3028 RMK A01 T00301025  RH  067%=      5-min Rain = 0
KMC4 201258Z 08006KT 03/M03 A3028 RMK A01 T00301025  RH  067%=      5-min Rain = 0
KMC4 201259Z 08006KT 03/M03 A3029 RMK A01 T00301025  RH  067%=      5-min Rain = 0
KMC4 201300Z 07005KT 03/M02 A3029 RMK A01 T00301024  RH  067%=      5-min Rain = 0
KMC4 201301Z 07006KT 03/M02 A3029 RMK A01 T00311024  RH  067%=      5-min Rain = 0
KMC4 201302Z 07005KT 03/M02 A3029 RMK A01 T00321024  RH  066%=      5-min Rain = 0
KMC4 201303Z 07005KT 03/M02 A3029 RMK A01 T00331024  RH  066%=      5-min Rain = 0
KMC4 201304Z 07005KT 03/M02 A3029 RMK A01 T00331024  RH  066%=      5-min Rain = 0
KMC4 201305Z 07004KT 03/M03 A3029 RMK A01 T00321025  RH  066%=      5-min Rain = 0
KMC4 201306Z 07004KT 03/M03 A3029 RMK A01 T00321025  RH  066%=      5-min Rain = 0
KMC4 201307Z 07005KT 03/M02 A3029 RMK A01 T00321024  RH  067%=      5-min Rain = 0
KMC4 201308Z 07005KT 03/M03 A3029 RMK A01 T00311025  RH  067%=      5-min Rain = 0
KMC4 201309Z 07005KT 03/M03 A3029 RMK A01 T00311025  RH  067%=      5-min Rain = 0
KMC4 201310Z 07005KT 03/M03 A3029 RMK A01 T00311025  RH  067%=      5-min Rain = 0
KMC4 201311Z 07006KT 03/M03 A3029 RMK A01 T00311025  RH  067%=      5-min Rain = 0
KMC4 201312Z 07005KT 03/M03 A3029 RMK A01 T00311025  RH  067%=      5-min Rain = 0
KMC4 201313Z 07005KT 03/M03 A3029 RMK A01 T00311025  RH  067%=      5-min Rain = 0
KMC4 201314Z 08006KT 03/M02 A3029 RMK A01 T00311024  RH  067%=      5-min Rain = 0
KMC4 201315Z 08005KT 03/M03 A3029 RMK A01 T00311025  RH  067%=      5-min Rain = 0
KMC4 201316Z 08005KT 03/M03 A3029 RMK A01 T00311025  RH  067%=      5-min Rain = 0
KMC4 201317Z 08005KT 03/M02 A3029 RMK A01 T00301024  RH  067%=      5-min Rain = 0
KMC4 201318Z 07005KT 03/M02 A3029 RMK A01 T00311024  RH  067%=      5-min Rain = 0
KMC4 201319Z 07004KT 03/M03 A3029 RMK A01 T00311025  RH  067%=      5-min Rain = 0
KMC4 201320Z 07005KT 03/M03 A3029 RMK A01 T00301025  RH  067%=      5-min Rain = 0
KMC4 201321Z 07005KT 03/M03 A3029 RMK A01 T00301025  RH  067%=      5-min Rain = 0
KMC4 201322Z 07005KT 03/M03 A3029 RMK A01 T00291025  RH  068%=      5-min Rain = 0
KMC4 201323Z 07006KT 03/M02 A3029 RMK A01 T00291024  RH  068%=      5-min Rain = 0
KMC4 201324Z 07005KT 03/M02 A3029 RMK A01 T00291024  RH  068%=      5-min Rain = 0
KMC4 201325Z 08006KT 03/M02 A3029 RMK A01 T00291024  RH  068%=      5-min Rain = 0
KMC4 201326Z 07005KT 03/M02 A3029 RMK A01 T00301024  RH  068%=      5-min Rain = 0
KMC4 201327Z 08005KT 03/M02 A3029 RMK A01 T00301024  RH  068%=      5-min Rain = 0
KMC4 201328Z 08006KT 03/M02 A3029 RMK A01 T00301024  RH  068%=      5-min Rain = 0
KMC4 201329Z 09006KT 03/M02 A3029 RMK A01 T00311024  RH  067%=      5-min Rain = 0
KMC4 201330Z 09006KT 03/M02 A3029 RMK A01 T00311024  RH  067%=      5-min Rain = 0
KMC4 201331Z 09006KT 03/M02 A3029 RMK A01 T00311024  RH  067%=      5-min Rain = 0
KMC4 201332Z 09006KT 03/M02 A3029 RMK A01 T00311024  RH  067%=      5-min Rain = 0
KMC4 201333Z 09005KT 03/M02 A3029 RMK A01 T00321023  RH  067%=      5-min Rain = 0
KMC4 201334Z 09006KT 03/M02 A3029 RMK A01 T00321023  RH  067%=      5-min Rain = 0
KMC4 201335Z 09006KT 03/M02 A303 RMK A01 T00331024  RH  067%=      5-min Rain = 0
KMC4 201336Z 09005KT 03/M02 A303 RMK A01 T00331024  RH  066%=      5-min Rain = 0
KMC4 201337Z 08005KT 03/M02 A303 RMK A01 T00341023  RH  066%=      5-min Rain = 0
KMC4 201338Z 08005KT 03/M02 A303 RMK A01 T00331024  RH  066%=      5-min Rain = 0
KMC4 201339Z 07004KT 03/M02 A303 RMK A01 T00321024  RH  067%=      5-min Rain = 0
KMC4 201340Z 08004KT 03/M02 A303 RMK A01 T00311024  RH  067%=      5-min Rain = 0
KMC4 201341Z 08005KT 03/M02 A303 RMK A01 T00301024  RH  067%=      5-min Rain = 0
KMC4 201342Z 08005KT 03/M02 A303 RMK A01 T00311024  RH  067%=      5-min Rain = 0
KMC4 201343Z 09006KT 03/M02 A303 RMK A01 T00311023  RH  067%=      5-min Rain = 0
KMC4 201344Z 09007KT 03/M02 A303 RMK A01 T00301024  RH  067%=      5-min Rain = 0
KMC4 201345Z 09006KT 03/M02 A303 RMK A01 T00311024  RH  067%=      5-min Rain = 0
KMC4 201346Z 09006KT 03/M02 A303 RMK A01 T00321023  RH  067%=      5-min Rain = 0
KMC4 201347Z 09006KT 03/M02 A303 RMK A01 T00331023  RH  066%=      5-min Rain = 0
KMC4 201348Z 09006KT 03/M02 A303 RMK A01 T00341023  RH  066%=      5-min Rain = 0
KMC4 201349Z 09006KT 03/M02 A303 RMK A01 T00341024  RH  066%=      5-min Rain = 0
KMC4 201350Z 09006KT 03/M02 A303 RMK A01 T00341024  RH  066%=      5-min Rain = 0
KMC4 201351Z 09006KT 04/M02 A303 RMK A01 T00351024  RH  066%=      5-min Rain = 0
KMC4 201352Z 10006KT 04/M02 A303 RMK A01 T00351024  RH  066%=      5-min Rain = 0
KMC4 201353Z 10006KT 04/M02 A303 RMK A01 T00351024  RH  065%=      5-min Rain = 0
KMC4 201354Z 10006KT 04/M02 A303 RMK A01 T00361023  RH  065%=      5-min Rain = 0
KMC4 201355Z 10006KT 04/M02 A303 RMK A01 T00361024  RH  065%=      5-min Rain = 0
KMC4 201356Z 10006KT 04/M02 A303 RMK A01 T00371024  RH  065%=      5-min Rain = 0
KMC4 201357Z 09006KT 04/M02 A303 RMK A01 T00381024  RH  064%=      5-min Rain = 0
KMC4 201358Z 10006KT 04/M02 A303 RMK A01 T00381024  RH  064%=      5-min Rain = 0
KMC4 201359Z 10006KT 04/M02 A3031 RMK A01 T00391023  RH  064%=      5-min Rain = 0
KMC4 201400Z 10007KT 04/M02 A303 RMK A01 T00391023  RH  064%=      5-min Rain = 0
KMC4 201401Z 10007KT 04/M02 A303 RMK A01 T00391024  RH  064%=      5-min Rain = 0
KMC4 201402Z 10007KT 04/M02 A303 RMK A01 T00401023  RH  063%=      5-min Rain = 0
KMC4 201403Z 10007KT 04/M02 A303 RMK A01 T00401023  RH  063%=      5-min Rain = 0
KMC4 201404Z 10006KT 04/M02 A303 RMK A01 T00401023  RH  063%=      5-min Rain = 0
KMC4 201405Z 10006KT 04/M02 A303 RMK A01 T00401023  RH  063%=      5-min Rain = 0
KMC4 201406Z 10007KT 04/M02 A303 RMK A01 T00401023  RH  063%=      5-min Rain = 0
KMC4 201407Z 10007KT 04/M02 A303 RMK A01 T00401023  RH  064%=      5-min Rain = 0
KMC4 201408Z 10007KT 04/M02 A303 RMK A01 T00401023  RH  064%=      5-min Rain = 0
KMC4 201409Z 10006KT 04/M02 A303 RMK A01 T00401023  RH  064%=      5-min Rain = 0
KMC4 201410Z 10007KT 04/M02 A303 RMK A01 T00401022  RH  064%=      5-min Rain = 0
KMC4 201411Z 10007KT 04/M02 A303 RMK A01 T00411022  RH  063%=      5-min Rain = 0
KMC4 201412Z 10007KT 04/M02 A303 RMK A01 T00411023  RH  063%=      5-min Rain = 0
KMC4 201413Z 10006KT 04/M02 A303 RMK A01 T00401023  RH  063%=      5-min Rain = 0
KMC4 201414Z 10006KT 04/M02 A303 RMK A01 T00401022  RH  064%=      5-min Rain = 0
KMC4 201415Z 09006KT 04/M02 A303 RMK A01 T00401023  RH  064%=      5-min Rain = 0
KMC4 201416Z 09005KT 04/M02 A303 RMK A01 T00411023  RH  063%=      5-min Rain = 0
KMC4 201417Z 09005KT 04/M02 A3031 RMK A01 T00411022  RH  063%=      5-min Rain = 0
KMC4 201418Z 09005KT 04/M02 A3031 RMK A01 T00411022  RH  063%=      5-min Rain = 0
KMC4 201419Z 09005KT 04/M02 A3031 RMK A01 T00411022  RH  064%=      5-min Rain = 0
KMC4 201420Z 10005KT 04/M02 A3031 RMK A01 T00401022  RH  064%=      5-min Rain = 0
KMC4 201421Z 09005KT 04/M02 A3031 RMK A01 T00401022  RH  064%=      5-min Rain = 0
KMC4 201422Z 09005KT 04/M02 A3031 RMK A01 T00401022  RH  064%=      5-min Rain = 0
KMC4 201423Z 09005KT 04/M02 A303 RMK A01 T00391022  RH  064%=      5-min Rain = 0
KMC4 201424Z 09005KT 04/M02 A303 RMK A01 T00391022  RH  065%=      5-min Rain = 0
KMC4 201425Z 10006KT 04/M02 A303 RMK A01 T00391022  RH  065%=      5-min Rain = 0
KMC4 201426Z 10006KT 04/M02 A303 RMK A01 T00391022  RH  065%=      5-min Rain = 0
KMC4 201427Z 10006KT 04/M02 A303 RMK A01 T00391022  RH  064%=      5-min Rain = 0
KMC4 201428Z 09006KT 04/M02 A303 RMK A01 T00391022  RH  064%=      5-min Rain = 0
KMC4 201429Z 10005KT 04/M02 A303 RMK A01 T00391022  RH  064%=      5-min Rain = 0
KMC4 201430Z 10005KT 04/M02 A3031 RMK A01 T00391022  RH  064%=      5-min Rain = 0
KMC4 201431Z 11005KT 04/M02 A3031 RMK A01 T00401021  RH  064%=      5-min Rain = 0
KMC4 201432Z 10005KT 04/M02 A3031 RMK A01 T00401021  RH  065%=      5-min Rain = 0
KMC4 201433Z 10005KT 04/M02 A3031 RMK A01 T00391021  RH  064%=      5-min Rain = 0
KMC4 201434Z 10004KT 04/M02 A3031 RMK A01 T00401021  RH  064%=      5-min Rain = 0
KMC4 201435Z 10005KT 04/M02 A3031 RMK A01 T00401021  RH  064%=      5-min Rain = 0
KMC4 201436Z 10004KT 04/M02 A3031 RMK A01 T00411021  RH  064%=      5-min Rain = 0
KMC4 201437Z 10005KT 04/M02 A3031 RMK A01 T00421021  RH  064%=      5-min Rain = 0
KMC4 201438Z 10005KT 04/M02 A3031 RMK A01 T00421021  RH  063%=      5-min Rain = 0
KMC4 201439Z 11005KT 04/M02 A3031 RMK A01 T00431021  RH  063%=      5-min Rain = 0
KMC4 201440Z 11004KT 04/M02 A3031 RMK A01 T00441020  RH  063%=      5-min Rain = 0
KMC4 201441Z 11004KT 05/M02 A3031 RMK A01 T00451020  RH  063%=      5-min Rain = 0
KMC4 201442Z 11005KT 05/M02 A3031 RMK A01 T00461020  RH  062%=      5-min Rain = 0
KMC4 201443Z 11004KT 05/M02 A3031 RMK A01 T00481020  RH  061%=      5-min Rain = 0
KMC4 201444Z 11006KT 05/M02 A3031 RMK A01 T00491020  RH  061%=      5-min Rain = 0
KMC4 201445Z 10005KT 05/M02 A3031 RMK A01 T00501021  RH  060%=      5-min Rain = 0
KMC4 201446Z 11004KT 05/M02 A3031 RMK A01 T00511020  RH  060%=      5-min Rain = 0
KMC4 201447Z 11005KT 05/M02 A3031 RMK A01 T00511020  RH  060%=      5-min Rain = 0
KMC4 201448Z 10005KT 05/M02 A3031 RMK A01 T00521020  RH  060%=      5-min Rain = 0
KMC4 201449Z 09005KT 05/M02 A3031 RMK A01 T00521020  RH  060%=      5-min Rain = 0
KMC4 201450Z 10006KT 05/M02 A3031 RMK A01 T00531020  RH  059%=      5-min Rain = 0
KMC4 201451Z 10005KT 05/M02 A3031 RMK A01 T00531020  RH  059%=      5-min Rain = 0
KMC4 201452Z 10005KT 05/M02 A3031 RMK A01 T00541020  RH  059%=      5-min Rain = 0
KMC4 201453Z 11005KT 05/M02 A3031 RMK A01 T00541019  RH  059%=      5-min Rain = 0
KMC4 201454Z 11005KT 06/M02 A3031 RMK A01 T00551020  RH  059%=      5-min Rain = 0
KMC4 201455Z 12006KT 06/M02 A3031 RMK A01 T00551020  RH  058%=      5-min Rain = 0
KMC4 201456Z 12006KT 06/M02 A3031 RMK A01 T00561020  RH  058%=      5-min Rain = 0
KMC4 201457Z 12006KT 06/M02 A3031 RMK A01 T00561020  RH  058%=      5-min Rain = 0
KMC4 201458Z 12006KT 06/M02 A3031 RMK A01 T00571020  RH  058%=      5-min Rain = 0
KMC4 201459Z 12007KT 06/M02 A3031 RMK A01 T00581019  RH  058%=      5-min Rain = 0
KMC4 201500Z 12008KT 06/M02 A3031 RMK A01 T00591019  RH  057%=      5-min Rain = 0
KMC4 201501Z 12007KT 06/M02 A3031 RMK A01 T00591020  RH  057%=      5-min Rain = 0
KMC4 201502Z 12008KT 06/M02 A3031 RMK A01 T00601020  RH  056%=      5-min Rain = 0
KMC4 201503Z 13009KT 06/M02 A3031 RMK A01 T00601019  RH  057%=      5-min Rain = 0
KMC4 201504Z 13009KT 06/M02 A3031 RMK A01 T00611019  RH  056%=      5-min Rain = 0
KMC4 201505Z 13009KT 06/M02 A3031 RMK A01 T00621019  RH  056%=      5-min Rain = 0
KMC4 201506Z 13009KT 06/M02 A3031 RMK A01 T00631020  RH  055%=      5-min Rain = 0
KMC4 201507Z 13010KT 06/M02 A3031 RMK A01 T00641020  RH  055%=      5-min Rain = 0
KMC4 201508Z 13010KT 06/M02 A3031 RMK A01 T00641021  RH  055%=      5-min Rain = 0
KMC4 201509Z 13010KT 07/M02 A3031 RMK A01 T00651020  RH  055%=      5-min Rain = 0
KMC4 201510Z 13010KT 07/M02 A3031 RMK A01 T00651020  RH  054%=      5-min Rain = 0
KMC4 201511Z 13009KT 07/M02 A3031 RMK A01 T00651021  RH  054%=      5-min Rain = 0
KMC4 201512Z 13009KT 07/M02 A3031 RMK A01 T00661019  RH  054%=      5-min Rain = 0
KMC4 201513Z 13008KT 07/M02 A3031 RMK A01 T00671020  RH  054%=      5-min Rain = 0
KMC4 201514Z 12008KT 07/M02 A3031 RMK A01 T00671020  RH  054%=      5-min Rain = 0
KMC4 201515Z 13009KT 07/M02 A3031 RMK A01 T00671021  RH  053%=      5-min Rain = 0
KMC4 201516Z 13009KT 07/M02 A3031 RMK A01 T00671022  RH  053%=      5-min Rain = 0
KMC4 201517Z 13007KT 07/M02 A3031 RMK A01 T00681021  RH  053%=      5-min Rain = 0
KMC4 201518Z 12008KT 07/M02 A3031 RMK A01 T00681020  RH  053%=      5-min Rain = 0
KMC4 201519Z 13009KT 07/M02 A3031 RMK A01 T00691020  RH  053%=      5-min Rain = 0
KMC4 201520Z 13007KT 07/M02 A3031 RMK A01 T00701020  RH  053%=      5-min Rain = 0
KMC4 201521Z 13008KT 07/M02 A3031 RMK A01 T00701019  RH  053%=      5-min Rain = 0
KMC4 201522Z 12009KT 07/M02 A3031 RMK A01 T00711019  RH  053%=      5-min Rain = 0
KMC4 201523Z 12007KT 07/M02 A3031 RMK A01 T00721020  RH  052%=      5-min Rain = 0
KMC4 201524Z 12007KT 07/M02 A3031 RMK A01 T00721020  RH  052%=      5-min Rain = 0
KMC4 201525Z 12007KT 07/M02 A3031 RMK A01 T00721019  RH  052%=      5-min Rain = 0
KMC4 201526Z 12007KT 07/M02 A3031 RMK A01 T00731018  RH  052%=      5-min Rain = 0
KMC4 201527Z 12008KT 07/M02 A3031 RMK A01 T00731020  RH  052%=      5-min Rain = 0
KMC4 201528Z 12008KT 07/M02 A3031 RMK A01 T00731020  RH  051%=      5-min Rain = 0
KMC4 201529Z 13008KT 07/M02 A3031 RMK A01 T00731020  RH  052%=      5-min Rain = 0
KMC4 201530Z 14007KT 07/M02 A3032 RMK A01 T00741018  RH  052%=      5-min Rain = 0
KMC4 201531Z 14008KT 08/M02 A3032 RMK A01 T00761018  RH  051%=      5-min Rain = 0
KMC4 201532Z 13008KT 08/M02 A3032 RMK A01 T00761020  RH  050%=      5-min Rain = 0
KMC4 201533Z 14008KT 08/M02 A3032 RMK A01 T00771020  RH  050%=      5-min Rain = 0
KMC4 201534Z 13010KT 08/M02 A3032 RMK A01 T00781019  RH  050%=      5-min Rain = 0
KMC4 201535Z 13010KT 08/M02 A3032 RMK A01 T00781021  RH  049%=      5-min Rain = 0
KMC4 201536Z 13010KT 08/M02 A3032 RMK A01 T00781021  RH  049%=      5-min Rain = 0
KMC4 201537Z 14010KT 08/M02 A3032 RMK A01 T00781022  RH  049%=      5-min Rain = 0
KMC4 201538Z 14009KT 08/M02 A3032 RMK A01 T00781022  RH  049%=      5-min Rain = 0
KMC4 201539Z 13008KT 08/M02 A3032 RMK A01 T00791021  RH  049%=      5-min Rain = 0
KMC4 201540Z 14010KT 08/M02 A3032 RMK A01 T00801020  RH  049%=      5-min Rain = 0
KMC4 201541Z 14010KT 08/M02 A3032 RMK A01 T00801022  RH  049%=      5-min Rain = 0
KMC4 201542Z 13008KT 08/M02 A3032 RMK A01 T00791021  RH  049%=      5-min Rain = 0
KMC4 201543Z 13009KT 08/M02 A3032 RMK A01 T00791021  RH  049%=      5-min Rain = 0
KMC4 201544Z 14009KT 08/M02 A3032 RMK A01 T00781021  RH  049%=      5-min Rain = 0
KMC4 201545Z 13008KT 08/M02 A3032 RMK A01 T00791021  RH  049%=      5-min Rain = 0
KMC4 201546Z 13008KT 08/M02 A3032 RMK A01 T00801020  RH  049%=      5-min Rain = 0
KMC4 201547Z 13009KT 08/M02 A3032 RMK A01 T00811021  RH  049%=      5-min Rain = 0
KMC4 201548Z 14008KT 08/M02 A3032 RMK A01 T00811021  RH  049%=      5-min Rain = 0
KMC4 201549Z 12008KT 08/M02 A3032 RMK A01 T00811019  RH  049%=      5-min Rain = 0
KMC4 201550Z 12009KT 08/M02 A3032 RMK A01 T00811020  RH  049%=      5-min Rain = 0
KMC4 201551Z 12009KT 08/M02 A3032 RMK A01 T00811021  RH  049%=      5-min Rain = 0
KMC4 201552Z 13009KT 08/M02 A3032 RMK A01 T00801021  RH  049%=      5-min Rain = 0
KMC4 201553Z 13008KT 08/M02 A3032 RMK A01 T00801020  RH  049%=      5-min Rain = 0
KMC4 201554Z 14009KT 08/M02 A3032 RMK A01 T00811020  RH  049%=      5-min Rain = 0
KMC4 201555Z 13008KT 08/M02 A3032 RMK A01 T00821019  RH  049%=      5-min Rain = 0
KMC4 201556Z 13008KT 08/M02 A3032 RMK A01 T00821019  RH  049%=      5-min Rain = 0
KMC4 201557Z 13008KT 08/M02 A3032 RMK A01 T00831020  RH  048%=      5-min Rain = 0
KMC4 201558Z 12008KT 08/M02 A3032 RMK A01 T00831019  RH  049%=      5-min Rain = 0
KMC4 201559Z 12008KT 08/M02 A3032 RMK A01 T00831020  RH  048%=      5-min Rain = 0
KMC4 201600Z 12007KT 08/M02 A3032 RMK A01 T00821020  RH  048%=      5-min Rain = 0
KMC4 201601Z 12008KT 08/M02 A3032 RMK A01 T00821020  RH  049%=      5-min Rain = 0
KMC4 201602Z 12009KT 08/M02 A3032 RMK A01 T00831018  RH  049%=      5-min Rain = 0
KMC4 201603Z 13009KT 08/M02 A3032 RMK A01 T00831019  RH  048%=      5-min Rain = 0
KMC4 201604Z 13009KT 08/M02 A3032 RMK A01 T00841019  RH  048%=      5-min Rain = 0
KMC4 201605Z 13008KT 09/M02 A3032 RMK A01 T00851017  RH  049%=      5-min Rain = 0
KMC4 201606Z 13008KT 09/M02 A3032 RMK A01 T00871017  RH  048%=      5-min Rain = 0
KMC4 201607Z 13006KT 09/M02 A3032 RMK A01 T00881018  RH  047%=      5-min Rain = 0
KMC4 201608Z 13005KT 09/M02 A3032 RMK A01 T00891017  RH  048%=      5-min Rain = 0
KMC4 201609Z 12006KT 09/M02 A3032 RMK A01 T00891017  RH  047%=      5-min Rain = 0
KMC4 201610Z 12006KT 09/M02 A3032 RMK A01 T00891018  RH  047%=      5-min Rain = 0
KMC4 201611Z 12006KT 09/M02 A3032 RMK A01 T00881019  RH  047%=      5-min Rain = 0
KMC4 201612Z 12006KT 09/M02 A3032 RMK A01 T00891019  RH  047%=      5-min Rain = 0
KMC4 201613Z 12008KT 09/M02 A3032 RMK A01 T00891018  RH  047%=      5-min Rain = 0
KMC4 201614Z 13007KT 09/M02 A3032 RMK A01 T00891018  RH  047%=      5-min Rain = 0
KMC4 201615Z 12008KT 09/M02 A3031 RMK A01 T00901018  RH  047%=      5-min Rain = 0
KMC4 201616Z 12008KT 09/M02 A3031 RMK A01 T00891019  RH  047%=      5-min Rain = 0
KMC4 201617Z 12006KT 09/M02 A3031 RMK A01 T00891018  RH  047%=      5-min Rain = 0
KMC4 201618Z 12008KT 09/M02 A3031 RMK A01 T00901017  RH  047%=      5-min Rain = 0
KMC4 201619Z 12007KT 09/M02 A3031 RMK A01 T00901017  RH  047%=      5-min Rain = 0
KMC4 201620Z 13007KT 09/M02 A3032 RMK A01 T00911016  RH  047%=      5-min Rain = 0
KMC4 201621Z 13007KT 09/M02 A3032 RMK A01 T00921016  RH  047%=      5-min Rain = 0
KMC4 201622Z 13006KT 10/M01 A3032 RMK A01 T00951013  RH  047%=      5-min Rain = 0
KMC4 201623Z 13006KT 10/M01 A3032 RMK A01 T00971013  RH  046%=      5-min Rain = 0
KMC4 201624Z 13006KT 10/M01 A3032 RMK A01 T00981014  RH  046%=      5-min Rain = 0
KMC4 201625Z 15006KT 10/M02 A3032 RMK A01 T00981015  RH  045%=      5-min Rain = 0
KMC4 201626Z 15007KT 10/M02 A3031 RMK A01 T00981015  RH  045%=      5-min Rain = 0
KMC4 201627Z 12008KT 10/M01 A3031 RMK A01 T00981014  RH  045%=      5-min Rain = 0
KMC4 201628Z 12010KT 10/M02 A3031 RMK A01 T00981015  RH  045%=      5-min Rain = 0
KMC4 201629Z 13008KT 10/M02 A3031 RMK A01 T00971017  RH  045%=      5-min Rain = 0
KMC4 201630Z 12009KT 10/M02 A3031 RMK A01 T00961017  RH  045%=      5-min Rain = 0
KMC4 201631Z 12010KT 10/M02 A3031 RMK A01 T00971017  RH  045%=      5-min Rain = 0
KMC4 201632Z 12010KT 10/M02 A3031 RMK A01 T00971018  RH  045%=      5-min Rain = 0
KMC4 201633Z 12009KT 10/M02 A3031 RMK A01 T00971017  RH  045%=      5-min Rain = 0
KMC4 201634Z 13010KT 10/M02 A3031 RMK A01 T00981015  RH  045%=      5-min Rain = 0
KMC4 201635Z 12011KT 10/M02 A3031 RMK A01 T01001015  RH  045%=      5-min Rain = 0
KMC4 201636Z 13010KT 10/M02 A3031 RMK A01 T01011016  RH  044%=      5-min Rain = 0
KMC4 201637Z 12010KT 10/M02 A3031 RMK A01 T01011017  RH  044%=      5-min Rain = 0
KMC4 201638Z 13010KT 10/M02 A3031 RMK A01 T01011015  RH  044%=      5-min Rain = 0
KMC4 201639Z 14010KT 10/M02 A3031 RMK A01 T01021016  RH  044%=      5-min Rain = 0
KMC4 201640Z 15009KT 10/M02 A3031 RMK A01 T01031017  RH  043%=      5-min Rain = 0
KMC4 201641Z 15010KT 10/M02 A3031 RMK A01 T01031015  RH  044%=      5-min Rain = 0
KMC4 201642Z 16008KT 10/M02 A303 RMK A01 T01031018  RH  043%=      5-min Rain = 0
KMC4 201643Z 14008KT 10/M02 A303 RMK A01 T01031016  RH  043%=      5-min Rain = 0
KMC4 201644Z 14009KT 10/M02 A303 RMK A01 T01041015  RH  044%=      5-min Rain = 0
KMC4 201645Z 15008KT 11/M02 A303 RMK A01 T01051016  RH  043%=      5-min Rain = 0
KMC4 201646Z 15009KT 11/M01 A303 RMK A01 T01051014  RH  043%=      5-min Rain = 0
KMC4 201647Z 15010KT 11/M02 A303 RMK A01 T01071016  RH  042%=      5-min Rain = 0
KMC4 201648Z 13010KT 11/M02 A303 RMK A01 T01061015  RH  043%=      5-min Rain = 0
KMC4 201649Z 14009KT 11/M02 A303 RMK A01 T01061015  RH  043%=      5-min Rain = 0
KMC4 201650Z 14008KT 11/M01 A3031 RMK A01 T01081014  RH  043%=      5-min Rain = 0
KMC4 201651Z 15011KT 11/M01 A303 RMK A01 T01101012  RH  043%=      5-min Rain = 0
KMC4 201652Z 15009KT 11/M02 A303 RMK A01 T01091017  RH  041%=      5-min Rain = 0
KMC4 201653Z 16011KT 11/M02 A303 RMK A01 T01081017  RH  042%=      5-min Rain = 0
KMC4 201654Z 15009KT 11/M02 A303 RMK A01 T01081017  RH  042%=      5-min Rain = 0
KMC4 201655Z 14010KT 11/M02 A303 RMK A01 T01081016  RH  042%=      5-min Rain = 0
KMC4 201656Z 14012KT 11/M02 A303 RMK A01 T01091016  RH  042%=      5-min Rain = 0
KMC4 201657Z 14010KT 11/M01 A303 RMK A01 T01101014  RH  042%=      5-min Rain = 0
KMC4 201658Z 15011KT 11/M02 A303 RMK A01 T01111015  RH  041%=      5-min Rain = 0
KMC4 201659Z 14009KT 11/M02 A303 RMK A01 T01111016  RH  041%=      5-min Rain = 0
KMC4 201700Z 14012KT 11/M02 A303 RMK A01 T01111015  RH  042%=      5-min Rain = 0
KMC4 201701Z 13011KT 11/M02 A303 RMK A01 T01111016  RH  041%=      5-min Rain = 0
KMC4 201702Z 13011KT 11/M01 A303 RMK A01 T01111014  RH  042%=      5-min Rain = 0
KMC4 201703Z 13011KT 11/M01 A303 RMK A01 T01121014  RH  041%=      5-min Rain = 0
KMC4 201704Z 14010KT 11/M01 A303 RMK A01 T01141014  RH  041%=      5-min Rain = 0
KMC4 201705Z 14012KT 12/M01 A3029 RMK A01 T01151014  RH  041%=      5-min Rain = 0
KMC4 201706Z 14012KT 12/M02 A3029 RMK A01 T01151015  RH  040%=      5-min Rain = 0
KMC4 201707Z 14011KT 12/M02 A3029 RMK A01 T01151015  RH  040%=      5-min Rain = 0
KMC4 201708Z 13011KT 12/M01 A3029 RMK A01 T01151013  RH  041%=      5-min Rain = 0
KMC4 201709Z 15012KT 12/M01 A3029 RMK A01 T01171013  RH  040%=      5-min Rain = 0
KMC4 201710Z 14012KT 12/M02 A3029 RMK A01 T01171015  RH  040%=      5-min Rain = 0
KMC4 201711Z 14013KT 12/M01 A3029 RMK A01 T01181014  RH  040%=      5-min Rain = 0
KMC4 201712Z 14010KT 12/M02 A3029 RMK A01 T01171015  RH  040%=      5-min Rain = 0
KMC4 201713Z 14011KT 12/M01 A3029 RMK A01 T01171012  RH  041%=      5-min Rain = 0
KMC4 201714Z 14011KT 12/M01 A3029 RMK A01 T01191012  RH  040%=      5-min Rain = 0
KMC4 201715Z 13012KT 12/M01 A3029 RMK A01 T01191013  RH  040%=      5-min Rain = 0
KMC4 201716Z 13012KT 12/M02 A3028 RMK A01 T01191015  RH  039%=      5-min Rain = 0
KMC4 201717Z 13014KT 12/M01 A3028 RMK A01 T01191014  RH  040%=      5-min Rain = 0
KMC4 201718Z 14014KT 12/M02 A3028 RMK A01 T01191015  RH  039%=      5-min Rain = 0
KMC4 201719Z 13014KT 12/M02 A3028 RMK A01 T01191016  RH  039%=      5-min Rain = 0
KMC4 201720Z 14013KT 12/M01 A3028 RMK A01 T01191014  RH  040%=      5-min Rain = 0
KMC4 201721Z 14014KT 12/M01 A3028 RMK A01 T01201014  RH  039%=      5-min Rain = 0
KMC4 201722Z 14015KT 12/M02 A3028 RMK A01 T01211015  RH  039%=      5-min Rain = 0
KMC4 201723Z 14014KT 12/M01 A3028 RMK A01 T01211014  RH  039%=      5-min Rain = 0
KMC4 201724Z 14011KT 12/M02 A3028 RMK A01 T01211015  RH  039%=      5-min Rain = 0
KMC4 201725Z 15013KT 12/M01 A3028 RMK A01 T01211014  RH  039%=      5-min Rain = 0
KMC4 201726Z 15015KT 12/M02 A3028 RMK A01 T01211017  RH  038%=      5-min Rain = 0
KMC4 201727Z 15014KT 12/M02 A3028 RMK A01 T01201017  RH  039%=      5-min Rain = 0
KMC4 201728Z 14014KT 12/M02 A3028 RMK A01 T01201015  RH  039%=      5-min Rain = 0
KMC4 201729Z 16011KT 12/M01 A3028 RMK A01 T01231012  RH  039%=      5-min Rain = 0
KMC4 201730Z 14012KT 13/M01 A3028 RMK A01 T01251013  RH  038%=      5-min Rain = 0
KMC4 201731Z 14015KT 13/M01 A3028 RMK A01 T01261013  RH  038%=      5-min Rain = 0
KMC4 201732Z 15014KT 13/M02 A3028 RMK A01 T01261015  RH  038%=      5-min Rain = 0
KMC4 201733Z 14012KT 12/M01 A3028 RMK A01 T01241014  RH  038%=      5-min Rain = 0
KMC4 201734Z 15015KT 13/M01 A3028 RMK A01 T01251012  RH  038%=      5-min Rain = 0
KMC4 201735Z 15013KT 13/M01 A3028 RMK A01 T01261014  RH  038%=      5-min Rain = 0
KMC4 201736Z 15013KT 13/M01 A3027 RMK A01 T01261013  RH  038%=      5-min Rain = 0
KMC4 201737Z 14013KT 13/M01 A3027 RMK A01 T01261012  RH  038%=      5-min Rain = 0
KMC4 201738Z 14014KT 13/M01 A3027 RMK A01 T01281010  RH  039%=      5-min Rain = 0
KMC4 201739Z 14014KT 13/M01 A3027 RMK A01 T01291010  RH  038%=      5-min Rain = 0
KMC4 201740Z 15013KT 13/M01 A3027 RMK A01 T01301011  RH  038%=      5-min Rain = 0
KMC4 201741Z 15013KT 13/M01 A3027 RMK A01 T01281012  RH  038%=      5-min Rain = 0
KMC4 201742Z 14013G18KT 13/M01 A3027 RMK A01 T01281011  RH  038%=      5-min Rain = 0
KMC4 201743Z 14015KT 13/M01 A3027 RMK A01 T01291011  RH  038%=      5-min Rain = 0
KMC4 201744Z 15013KT 13/M01 A3027 RMK A01 T01271013  RH  038%=      5-min Rain = 0
KMC4 201745Z 16014KT 13/M01 A3027 RMK A01 T01281011  RH  038%=      5-min Rain = 0
KMC4 201746Z 15014KT 13/M01 A3027 RMK A01 T01281012  RH  038%=      5-min Rain = 0
KMC4 201747Z 15014KT 13/M01 A3027 RMK A01 T01271013  RH  038%=      5-min Rain = 0
KMC4 201748Z 15012KT 13/M01 A3027 RMK A01 T01271013  RH  038%=      5-min Rain = 0
KMC4 201749Z 14011KT 13/M01 A3026 RMK A01 T01261012  RH  038%=      5-min Rain = 0
KMC4 201750Z 15014KT 13/M01 A3026 RMK A01 T01291009  RH  039%=      5-min Rain = 0
KMC4 201751Z 15015KT 13/M01 A3026 RMK A01 T01301011  RH  038%=      5-min Rain = 0
KMC4 201752Z 14014KT 13/M01 A3026 RMK A01 T01281013  RH  038%=      5-min Rain = 0
KMC4 201753Z 14016KT 13/M01 A3026 RMK A01 T01281012  RH  038%=      5-min Rain = 0
KMC4 201754Z 15014KT 13/M01 A3026 RMK A01 T01291012  RH  038%=      5-min Rain = 0
KMC4 201755Z 15012KT 13/M01 A3026 RMK A01 T01301011  RH  038%=      5-min Rain = 0
KMC4 201756Z 14013KT 13/M01 A3026 RMK A01 T01301011  RH  038%=      5-min Rain = 0
KMC4 201757Z 13013KT 13/M01 A3026 RMK A01 T01291011  RH  038%=      5-min Rain = 0
KMC4 201758Z 14013KT 13/M01 A3026 RMK A01 T01301011  RH  038%=      5-min Rain = 0
KMC4 201759Z 14013KT 13/M01 A3026 RMK A01 T01301011  RH  038%=      5-min Rain = 0
KMC4 201800Z 15012G17KT 13/M01 A3026 RMK A01 T01301011  RH  038%=      5-min Rain = 0
KMC4 201801Z 15012KT 13/M01 A3026 RMK A01 T01301012  RH  038%=      5-min Rain = 0
KMC4 201802Z 15013KT 13/M01 A3026 RMK A01 T01291013  RH  037%=      5-min Rain = 0
KMC4 201803Z 15011KT 13/M01 A3026 RMK A01 T01301012  RH  038%=      5-min Rain = 0
KMC4 201804Z 15012KT 13/M01 A3026 RMK A01 T01311012  RH  037%=      5-min Rain = 0
KMC4 201805Z 15010KT 13/M01 A3026 RMK A01 T01311012  RH  037%=      5-min Rain = 0
KMC4 201806Z 16010KT 13/M01 A3026 RMK A01 T01321010  RH  038%=      5-min Rain = 0
KMC4 201807Z 17012KT 13/M01 A3026 RMK A01 T01331009  RH  038%=      5-min Rain = 0
KMC4 201808Z 17009KT 13/M01 A3027 RMK A01 T01331013  RH  037%=      5-min Rain = 0
KMC4 201809Z 17009KT 13/M01 A3027 RMK A01 T01321013  RH  037%=      5-min Rain = 0
KMC4 201810Z 15009KT 13/M01 A3027 RMK A01 T01321012  RH  037%=      5-min Rain = 0
KMC4 201811Z 15010KT 13/M01 A3026 RMK A01 T01331008  RH  038%=      5-min Rain = 0
KMC4 201812Z 17012KT 14/M01 A3026 RMK A01 T01351008  RH  037%=      5-min Rain = 0
KMC4 201813Z 16010KT 14/M01 A3026 RMK A01 T01361012  RH  036%=      5-min Rain = 0
KMC4 201814Z 17010KT 14/M01 A3026 RMK A01 T01361012  RH  036%=      5-min Rain = 0
KMC4 201815Z 15007KT 14/M01 A3026 RMK A01 T01351012  RH  036%=      5-min Rain = 0
KMC4 201816Z 16009KT 14/M01 A3026 RMK A01 T01371009  RH  037%=      5-min Rain = 0
KMC4 201817Z 16011KT 14/M01 A3026 RMK A01 T01391009  RH  036%=      5-min Rain = 0
KMC4 201818Z 17011KT 14/M01 A3026 RMK A01 T01391013  RH  035%=      5-min Rain = 0
KMC4 201819Z 16010KT 14/M01 A3026 RMK A01 T01381012  RH  035%=      5-min Rain = 0
KMC4 201820Z 16011KT 14/M01 A3026 RMK A01 T01381011  RH  036%=      5-min Rain = 0
KMC4 201821Z 16011KT 14/M01 A3026 RMK A01 T01391012  RH  035%=      5-min Rain = 0
KMC4 201822Z 18010KT 14/M01 A3025 RMK A01 T01381012  RH  035%=      5-min Rain = 0
KMC4 201823Z 17010KT 14/M01 A3025 RMK A01 T01381013  RH  035%=      5-min Rain = 0
KMC4 201824Z 17010KT 14/M01 A3025 RMK A01 T01381013  RH  035%=      5-min Rain = 0
KMC4 201825Z 16010KT 14/M01 A3025 RMK A01 T01391011  RH  036%=      5-min Rain = 0
KMC4 201826Z 15012KT 14/M01 A3025 RMK A01 T01411011  RH  035%=      5-min Rain = 0
KMC4 201827Z 17012KT 14/M01 A3025 RMK A01 T01421012  RH  035%=      5-min Rain = 0
KMC4 201828Z 17009KT 14/M01 A3025 RMK A01 T01421011  RH  035%=      5-min Rain = 0
KMC4 201829Z 19009KT 14/M01 A3025 RMK A01 T01421013  RH  034%=      5-min Rain = 0
KMC4 201830Z 16007KT 14/M01 A3025 RMK A01 T01431013  RH  034%=      5-min Rain = 0
KMC4 201831Z 15008KT 15/M01 A3025 RMK A01 T01451009  RH  035%=      5-min Rain = 0
KMC4 201832Z 16011KT 15/M01 A3024 RMK A01 T01491006  RH  035%=      5-min Rain = 0
KMC4 201833Z 15012KT 15/M01 A3024 RMK A01 T01481014  RH  033%=      5-min Rain = 0
KMC4 201834Z 16010KT 15/M01 A3024 RMK A01 T01461014  RH  033%=      5-min Rain = 0
KMC4 201835Z 16010KT 14/M02 A3024 RMK A01 T01441016  RH  033%=      5-min Rain = 0
KMC4 201836Z 16010KT 14/M01 A3024 RMK A01 T01441014  RH  034%=      5-min Rain = 0
KMC4 201837Z 16008KT 14/M01 A3024 RMK A01 T01441014  RH  034%=      5-min Rain = 0
KMC4 201838Z 15008KT 14/M01 A3024 RMK A01 T01431014  RH  034%=      5-min Rain = 0
KMC4 201839Z 14010KT 14/M01 A3024 RMK A01 T01431013  RH  034%=      5-min Rain = 0
KMC4 201840Z 15011KT 15/M01 A3023 RMK A01 T01451012  RH  034%=      5-min Rain = 0
KMC4 201841Z 16009KT 15/M01 A3023 RMK A01 T01471010  RH  034%=      5-min Rain = 0
KMC4 201842Z 17009KT 15/M01 A3023 RMK A01 T01481010  RH  034%=      5-min Rain = 0
KMC4 201843Z 15007KT 15/M01 A3023 RMK A01 T01501005  RH  034%=      5-min Rain = 0
KMC4 201844Z 15011KT 15/M01 A3023 RMK A01 T01531009  RH  033%=      5-min Rain = 0
KMC4 201845Z 16010KT 15/M01 A3023 RMK A01 T01531010  RH  033%=      5-min Rain = 0
KMC4 201846Z 16011KT 15/M01 A3023 RMK A01 T01521012  RH  033%=      5-min Rain = 0
KMC4 201847Z 14011KT 15/M01 A3023 RMK A01 T01521010  RH  033%=      5-min Rain = 0
KMC4 201848Z 15010KT 15/M01 A3023 RMK A01 T01531010  RH  033%=      5-min Rain = 0
KMC4 201849Z 15010KT 15/M01 A3023 RMK A01 T01541010  RH  032%=      5-min Rain = 0
KMC4 201850Z 15008KT 15/M01 A3023 RMK A01 T01541008  RH  033%=      5-min Rain = 0
KMC4 201851Z 14012KT 16/M01 A3023 RMK A01 T01561008  RH  033%=      5-min Rain = 0
KMC4 201852Z 15011KT 16/M01 A3022 RMK A01 T01561013  RH  032%=      5-min Rain = 0
KMC4 201853Z 16009KT 16/M01 A3022 RMK A01 T01551010  RH  032%=      5-min Rain = 0
KMC4 201854Z 19007KT 15/M01 A3022 RMK A01 T01541010  RH  032%=      5-min Rain = 0
KMC4 201855Z 17007KT 15/M01 A3022 RMK A01 T01541009  RH  033%=      5-min Rain = 0
KMC4 201856Z 18008KT 15/M01 A3022 RMK A01 T01531011  RH  032%=      5-min Rain = 0
KMC4 201857Z 15010KT 15/M01 A3022 RMK A01 T01541011  RH  032%=      5-min Rain = 0
KMC4 201858Z 15011KT 15/M01 A3022 RMK A01 T01541010  RH  033%=      5-min Rain = 0
KMC4 201859Z 14012KT 16/M01 A3022 RMK A01 T01561008  RH  033%=      5-min Rain = 0
KMC4 201900Z 14009KT 16/M01 A3022 RMK A01 T01571009  RH  032%=      5-min Rain = 0
KMC4 201901Z 15008KT 16/M01 A3022 RMK A01 T01571008  RH  032%=      5-min Rain = 0
KMC4 201902Z 15008KT 16/M01 A3022 RMK A01 T01581005  RH  033%=      5-min Rain = 0
KMC4 201903Z 16011KT 16/M01 A3022 RMK A01 T01601005  RH  032%=      5-min Rain = 0
KMC4 201904Z 16010KT 16/M01 A3021 RMK A01 T01601008  RH  032%=      5-min Rain = 0
KMC4 201905Z 16008KT 16/M01 A3022 RMK A01 T01581008  RH  032%=      5-min Rain = 0
KMC4 201906Z 17009KT 16/M01 A3021 RMK A01 T01591005  RH  033%=      5-min Rain = 0
KMC4 201907Z 15010KT 16/M01 A3021 RMK A01 T01591008  RH  032%=      5-min Rain = 0
KMC4 201908Z 15012KT 16/M01 A3021 RMK A01 T01601005  RH  032%=      5-min Rain = 0
KMC4 201909Z 14008G13KT 16/M01 A3021 RMK A01 T01591008  RH  032%=      5-min Rain = 0
KMC4 201910Z 14011KT 16/M01 A3021 RMK A01 T01591006  RH  032%=      5-min Rain = 0
KMC4 201911Z 14009KT 16/M01 A3021 RMK A01 T01591008  RH  032%=      5-min Rain = 0
KMC4 201912Z 13011KT 16/M00 A3021 RMK A01 T01591004  RH  033%=      5-min Rain = 0
KMC4 201913Z 14012KT 16/M00 A3021 RMK A01 T01611004  RH  033%=      5-min Rain = 0
KMC4 201914Z 15010KT 16/M01 A3021 RMK A01 T01621006  RH  032%=      5-min Rain = 0
KMC4 201915Z 16008KT 16/M01 A3021 RMK A01 T01611006  RH  032%=      5-min Rain = 0
KMC4 201916Z 15010KT 16/M01 A3021 RMK A01 T01611005  RH  032%=      5-min Rain = 0
KMC4 201917Z 14010KT 16/M01 A3021 RMK A01 T01621007  RH  031%=      5-min Rain = 0
KMC4 201918Z 14010KT 16/M01 A3021 RMK A01 T01621007  RH  032%=      5-min Rain = 0
KMC4 201919Z 15009KT 16/M01 A3021 RMK A01 T01611008  RH  032%=      5-min Rain = 0
KMC4 201920Z 14011KT 16/M01 A3021 RMK A01 T01611006  RH  032%=      5-min Rain = 0
KMC4 201921Z 15010KT 16/M01 A3021 RMK A01 T01621008  RH  031%=      5-min Rain = 0
KMC4 201922Z 15010KT 16/M01 A3021 RMK A01 T01611008  RH  032%=      5-min Rain = 0
KMC4 201923Z 14008KT 16/M01 A3021 RMK A01 T01611006  RH  032%=      5-min Rain = 0
KMC4 201924Z 13009KT 16/M01 A302 RMK A01 T01611006  RH  032%=      5-min Rain = 0
KMC4 201925Z 15010KT 16/M01 A302 RMK A01 T01621005  RH  032%=      5-min Rain = 0
KMC4 201926Z 18008KT 16/M01 A302 RMK A01 T01641010  RH  031%=      5-min Rain = 0
KMC4 201927Z 14007KT 16/M01 A302 RMK A01 T01621013  RH  030%=      5-min Rain = 0
KMC4 201928Z 13008KT 16/M01 A302 RMK A01 T01611007  RH  032%=      5-min Rain = 0
KMC4 201929Z 14009KT 16/M00 A302 RMK A01 T01631004  RH  032%=      5-min Rain = 0
KMC4 201930Z 14008KT 17/M00 A302 RMK A01 T01661004  RH  032%=      5-min Rain = 0
KMC4 201931Z 15010KT 17/M01 A302 RMK A01 T01671006  RH  031%=      5-min Rain = 0
KMC4 201932Z 15010KT 17/M01 A302 RMK A01 T01671011  RH  030%=      5-min Rain = 0
KMC4 201933Z 15008KT 17/M01 A3019 RMK A01 T01671011  RH  030%=      5-min Rain = 0
KMC4 201934Z 16008KT 17/M01 A3019 RMK A01 T01671009  RH  030%=      5-min Rain = 0
KMC4 201935Z 16006KT 17/M01 A3019 RMK A01 T01681009  RH  030%=      5-min Rain = 0
KMC4 201936Z 16009KT 17/M01 A3019 RMK A01 T01691008  RH  030%=      5-min Rain = 0
KMC4 201937Z 17010KT 17/M01 A3019 RMK A01 T01681013  RH  029%=      5-min Rain = 0
KMC4 201938Z 17008KT 16/M01 A3019 RMK A01 T01641014  RH  030%=      5-min Rain = 0
KMC4 201939Z 15006KT 16/M01 A3019 RMK A01 T01641011  RH  030%=      5-min Rain = 0
KMC4 201940Z 13008KT 17/M01 A3019 RMK A01 T01661005  RH  031%=      5-min Rain = 0
KMC4 201941Z 14009KT 17/M00 A3019 RMK A01 T01671002  RH  032%=      5-min Rain = 0
KMC4 201942Z 16008KT 17/M01 A3019 RMK A01 T01671006  RH  031%=      5-min Rain = 0
KMC4 201943Z 15011KT 17/M01 A3019 RMK A01 T01671007  RH  030%=      5-min Rain = 0
KMC4 201944Z 14010KT 17/M01 A3018 RMK A01 T01681009  RH  030%=      5-min Rain = 0
KMC4 201945Z 16009KT 17/M01 A3018 RMK A01 T01671007  RH  031%=      5-min Rain = 0
KMC4 201946Z 16008KT 17/M01 A3018 RMK A01 T01671007  RH  031%=      5-min Rain = 0
KMC4 201947Z 16010KT 17/M01 A3018 RMK A01 T01671006  RH  031%=      5-min Rain = 0
KMC4 201948Z 16009KT 17/M01 A3018 RMK A01 T01681006  RH  031%=      5-min Rain = 0
KMC4 201949Z 15008KT 17/M01 A3018 RMK A01 T01681006  RH  031%=      5-min Rain = 0
KMC4 201950Z 17010KT 17/M01 A3018 RMK A01 T01671006  RH  031%=      5-min Rain = 0
KMC4 201951Z 18011KT 17/M01 A3018 RMK A01 T01671008  RH  030%=      5-min Rain = 0
KMC4 201952Z 18007KT 17/M01 A3018 RMK A01 T01651011  RH  030%=      5-min Rain = 0
KMC4 201953Z 17007KT 16/M01 A3018 RMK A01 T01641010  RH  030%=      5-min Rain = 0
KMC4 201954Z 15007KT 16/M01 A3018 RMK A01 T01641009  RH  031%=      5-min Rain = 0
KMC4 201955Z 13010KT 17/M00 A3018 RMK A01 T01651004  RH  032%=      5-min Rain = 0
KMC4 201956Z 12009KT 17/M00 A3018 RMK A01 T01671003  RH  032%=      5-min Rain = 0
KMC4 201957Z 12010KT 17/M00 A3018 RMK A01 T01661004  RH  031%=      5-min Rain = 0
KMC4 201958Z 13013KT 17/M00 A3018 RMK A01 T01651003  RH  032%=      5-min Rain = 0
KMC4 201959Z 14010KT 17/M00 A3018 RMK A01 T01671003  RH  031%=      5-min Rain = 0
KMC4 202000Z 14010KT 17/M00 A3018 RMK A01 T01691002  RH  031%=      5-min Rain = 0
KMC4 202001Z 15008KT 17/M00 A3018 RMK A01 T01701002  RH  031%=      5-min Rain = 0
KMC4 202002Z 12009KT 17/M00 A3018 RMK A01 T01711002  RH  031%=      5-min Rain = 0
KMC4 202003Z 12010G17KT 17/M00 A3017 RMK A01 T01691004  RH  031%=      5-min Rain = 0
KMC4 202004Z 15012KT 17/M00 A3017 RMK A01 T01691002  RH  031%=      5-min Rain = 0
KMC4 202005Z 14010KT 17/M00 A3017 RMK A01 T01701001  RH  031%=      5-min Rain = 0
KMC4 202006Z 14009KT 17/M00 A3017 RMK A01 T01701001  RH  031%=      5-min Rain = 0
KMC4 202007Z 11010KT 17/00 A3017 RMK A01 T01700000  RH  032%=      5-min Rain = 0
KMC4 202008Z 12013KT 17/M00 A3017 RMK A01 T01701002  RH  031%=      5-min Rain = 0
KMC4 202009Z 12011KT 17/M00 A3017 RMK A01 T01691003  RH  031%=      5-min Rain = 0
KMC4 202010Z 12012KT 17/M00 A3017 RMK A01 T01691002  RH  031%=      5-min Rain = 0
KMC4 202011Z 12012KT 17/M00 A3017 RMK A01 T01691002  RH  031%=      5-min Rain = 0
KMC4 202012Z 13011KT 17/M00 A3017 RMK A01 T01711001  RH  031%=      5-min Rain = 0
KMC4 202013Z 13009KT 17/M00 A3017 RMK A01 T01721004  RH  030%=      5-min Rain = 0
KMC4 202014Z 13009KT 17/M00 A3017 RMK A01 T01711003  RH  031%=      5-min Rain = 0
KMC4 202015Z 14009KT 17/M00 A3017 RMK A01 T01711003  RH  031%=      5-min Rain = 0
KMC4 202016Z 14008KT 17/M00 A3017 RMK A01 T01711001  RH  031%=      5-min Rain = 0
KMC4 202017Z 12010KT 17/00 A3016 RMK A01 T01730000  RH  031%=      5-min Rain = 0
KMC4 202018Z 13009KT 17/00 A3016 RMK A01 T017200-0  RH  031%=      5-min Rain = 0
KMC4 202019Z 14011KT 17/00 A3016 RMK A01 T017300-0  RH  031%=      5-min Rain = 0
KMC4 202020Z 13012KT 17/00 A3016 RMK A01 T01740000  RH  031%=      5-min Rain = 0
KMC4 202021Z 12011KT 17/00 A3016 RMK A01 T01740000  RH  031%=      5-min Rain = 0
KMC4 202022Z 11009KT 17/00 A3016 RMK A01 T017300-0  RH  031%=      5-min Rain = 0
KMC4 202023Z 13010KT 17/M00 A3016 RMK A01 T01711004  RH  031%=      5-min Rain = 0
KMC4 202024Z 13012KT 17/M00 A3016 RMK A01 T01701001  RH  031%=      5-min Rain = 0
KMC4 202025Z 13013KT 17/M00 A3016 RMK A01 T01721001  RH  031%=      5-min Rain = 0
KMC4 202026Z 14007KT 17/M00 A3016 RMK A01 T01721003  RH  030%=      5-min Rain = 0
KMC4 202027Z 16008KT 17/00 A3015 RMK A01 T01730001  RH  031%=      5-min Rain = 0
KMC4 202028Z 16011KT 18/M00 A3015 RMK A01 T01751001  RH  030%=      5-min Rain = 0
KMC4 202029Z 16010KT 18/M00 A3015 RMK A01 T01761004  RH  030%=      5-min Rain = 0
KMC4 202030Z 15009KT 18/M00 A3015 RMK A01 T01761004  RH  030%=      5-min Rain = 0
KMC4 202031Z 14010KT 18/M00 A3015 RMK A01 T01771002  RH  030%=      5-min Rain = 0
KMC4 202032Z 14013KT 18/00 A3015 RMK A01 T018000-0  RH  030%=      5-min Rain = 0
KMC4 202033Z 14011KT 18/M00 A3015 RMK A01 T01801002  RH  029%=      5-min Rain = 0
KMC4 202034Z 15012KT 18/00 A3015 RMK A01 T01800001  RH  030%=      5-min Rain = 0
KMC4 202035Z 16009KT 18/M01 A3015 RMK A01 T01791006  RH  029%=      5-min Rain = 0
KMC4 202036Z 13008KT 18/M00 A3015 RMK A01 T01781002  RH  030%=      5-min Rain = 0
KMC4 202037Z 14009KT 18/00 A3015 RMK A01 T01790001  RH  030%=      5-min Rain = 0
KMC4 202038Z 16010KT 18/00 A3015 RMK A01 T018100-0  RH  029%=      5-min Rain = 0
KMC4 202039Z 15009KT 18/M00 A3015 RMK A01 T01811003  RH  029%=      5-min Rain = 0
KMC4 202040Z 14010KT 18/00 A3015 RMK A01 T01820002  RH  030%=      5-min Rain = 0
KMC4 202041Z 14008KT 18/00 A3015 RMK A01 T01820001  RH  029%=      5-min Rain = 0
KMC4 202042Z 14010KT 18/00 A3015 RMK A01 T01820001  RH  030%=      5-min Rain = 0
KMC4 202043Z 16010KT 18/M00 A3015 RMK A01 T01831002  RH  029%=      5-min Rain = 0
KMC4 202044Z 18011KT 18/M01 A3015 RMK A01 T01831005  RH  028%=      5-min Rain = 0
KMC4 202045Z 19009KT 18/M01 A3015 RMK A01 T01821008  RH  028%=      5-min Rain = 0
KMC4 202046Z 18009KT 18/M01 A3015 RMK A01 T01811009  RH  028%=      5-min Rain = 0
KMC4 202047Z 15010KT 18/M01 A3014 RMK A01 T01811007  RH  028%=      5-min Rain = 0
KMC4 202048Z 15010KT 18/M01 A3014 RMK A01 T01831005  RH  028%=      5-min Rain = 0
KMC4 202049Z 15009KT 18/M00 A3014 RMK A01 T01841004  RH  028%=      5-min Rain = 0
KMC4 202050Z 14012KT 18/M00 A3014 RMK A01 T01831002  RH  029%=      5-min Rain = 0
KMC4 202051Z 14011KT 18/M00 A3014 RMK A01 T01831002  RH  029%=      5-min Rain = 0
KMC4 202052Z 13009KT 18/M00 A3014 RMK A01 T01821003  RH  029%=      5-min Rain = 0
KMC4 202053Z 13012KT 18/00 A3014 RMK A01 T018100-0  RH  029%=      5-min Rain = 0
KMC4 202054Z 13012KT 18/M00 A3014 RMK A01 T01821002  RH  029%=      5-min Rain = 0
KMC4 202055Z 14012KT 18/00 A3014 RMK A01 T01820001  RH  029%=      5-min Rain = 0
KMC4 202056Z 13012KT 18/M00 A3014 RMK A01 T01831001  RH  029%=      5-min Rain = 0
KMC4 202057Z 13011KT 18/00 A3014 RMK A01 T01840000  RH  029%=      5-min Rain = 0
KMC4 202058Z 12013KT 18/00 A3014 RMK A01 T01840001  RH  029%=      5-min Rain = 0
KMC4 202059Z 13012KT 18/00 A3014 RMK A01 T018400-0  RH  029%=      5-min Rain = 0
KMC4 202100Z 12010KT 18/M00 A3014 RMK A01 T01841001  RH  029%=      5-min Rain = 0
KMC4 202101Z 13012KT 18/M00 A3014 RMK A01 T01831002  RH  029%=      5-min Rain = 0
KMC4 202102Z 14010KT 18/M00 A3014 RMK A01 T01821002  RH  029%=      5-min Rain = 0
KMC4 202103Z 12009KT 18/M00 A3014 RMK A01 T01821002  RH  029%=      5-min Rain = 0
KMC4 202104Z 12011KT 18/M00 A3014 RMK A01 T01821002  RH  029%=      5-min Rain = 0
KMC4 202105Z 12008KT 18/M01 A3014 RMK A01 T01801005  RH  029%=      5-min Rain = 0
KMC4 202106Z 12009KT 18/M00 A3014 RMK A01 T01781002  RH  030%=      5-min Rain = 0
KMC4 202107Z 16011KT 18/M00 A3013 RMK A01 T01811001  RH  029%=      5-min Rain = 0
KMC4 202108Z 16011KT 18/M00 A3013 RMK A01 T01841004  RH  028%=      5-min Rain = 0
KMC4 202109Z 17009KT 18/M01 A3013 RMK A01 T01841005  RH  028%=      5-min Rain = 0
KMC4 202110Z 14009KT 18/M00 A3013 RMK A01 T01841003  RH  028%=      5-min Rain = 0
KMC4 202111Z 14011KT 19/M00 A3013 RMK A01 T01861001  RH  028%=      5-min Rain = 0
KMC4 202112Z 13008KT 19/M00 A3013 RMK A01 T01871002  RH  028%=      5-min Rain = 0
KMC4 202113Z 13013KT 19/M00 A3013 RMK A01 T01871001  RH  028%=      5-min Rain = 0
KMC4 202114Z 16010KT 19/M00 A3014 RMK A01 T01871001  RH  028%=      5-min Rain = 0
KMC4 202115Z 16010KT 19/M00 A3014 RMK A01 T01881003  RH  027%=      5-min Rain = 0
KMC4 202116Z 16009KT 19/M01 A3014 RMK A01 T01881006  RH  027%=      5-min Rain = 0
KMC4 202117Z 14010KT 19/M00 A3013 RMK A01 T01871002  RH  028%=      5-min Rain = 0
KMC4 202118Z 13010KT 19/M00 A3014 RMK A01 T01881001  RH  028%=      5-min Rain = 0
KMC4 202119Z 13012KT 19/M00 A3014 RMK A01 T01881002  RH  028%=      5-min Rain = 0
KMC4 202120Z 13011KT 19/M00 A3014 RMK A01 T01871003  RH  028%=      5-min Rain = 0
KMC4 202121Z 12011KT 19/M00 A3013 RMK A01 T01861002  RH  028%=      5-min Rain = 0
KMC4 202122Z 12010KT 19/M00 A3013 RMK A01 T01861002  RH  028%=      5-min Rain = 0
KMC4 202123Z 11013KT 19/M00 A3013 RMK A01 T01861003  RH  028%=      5-min Rain = 0
KMC4 202124Z 12011KT 19/M00 A3013 RMK A01 T01851003  RH  028%=      5-min Rain = 0
KMC4 202125Z 13010KT 19/M00 A3013 RMK A01 T01861002  RH  028%=      5-min Rain = 0
KMC4 202126Z 12011KT 19/00 A3013 RMK A01 T018700-0  RH  028%=      5-min Rain = 0
KMC4 202127Z 12008KT 19/M00 A3013 RMK A01 T01881001  RH  028%=      5-min Rain = 0
KMC4 202128Z 13010KT 19/00 A3013 RMK A01 T01870000  RH  028%=      5-min Rain = 0
KMC4 202129Z 14011KT 19/00 A3013 RMK A01 T01890001  RH  028%=      5-min Rain = 0
KMC4 202130Z 13012KT 19/00 A3013 RMK A01 T01910002  RH  028%=      5-min Rain = 0
KMC4 202131Z 13011KT 19/00 A3013 RMK A01 T019200-0  RH  027%=      5-min Rain = 0
KMC4 202132Z 14010KT 19/M00 A3013 RMK A01 T01911002  RH  027%=      5-min Rain = 0
KMC4 202133Z 14010KT 19/M00 A3013 RMK A01 T01901002  RH  027%=      5-min Rain = 0
KMC4 202134Z 14014KT 19/M00 A3013 RMK A01 T01901001  RH  028%=      5-min Rain = 0
KMC4 202135Z 14013KT 19/M00 A3013 RMK A01 T01911002  RH  027%=      5-min Rain = 0
KMC4 202136Z 13011KT 19/M00 A3013 RMK A01 T01911002  RH  027%=      5-min Rain = 0
KMC4 202137Z 13011KT 19/M00 A3013 RMK A01 T01901002  RH  028%=      5-min Rain = 0
KMC4 202138Z 12014KT 19/M00 A3012 RMK A01 T01901003  RH  027%=      5-min Rain = 0
KMC4 202139Z 11011KT 19/M01 A3013 RMK A01 T01891006  RH  027%=      5-min Rain = 0
KMC4 202140Z 14010KT 19/M01 A3013 RMK A01 T01871006  RH  027%=      5-min Rain = 0
KMC4 202141Z 15009KT 19/M00 A3013 RMK A01 T01871002  RH  028%=      5-min Rain = 0
KMC4 202142Z 17009KT 19/M00 A3013 RMK A01 T01901002  RH  027%=      5-min Rain = 0
KMC4 202143Z 16009KT 19/M00 A3013 RMK A01 T01911004  RH  027%=      5-min Rain = 0
KMC4 202144Z 14010KT 19/M00 A3012 RMK A01 T01921004  RH  027%=      5-min Rain = 0
KMC4 202145Z 14012KT 19/M00 A3012 RMK A01 T01921004  RH  027%=      5-min Rain = 0
KMC4 202146Z 13012KT 19/M00 A3012 RMK A01 T01921002  RH  027%=      5-min Rain = 0
KMC4 202147Z 13011KT 19/M00 A3012 RMK A01 T01901002  RH  027%=      5-min Rain = 0
KMC4 202148Z 13011KT 19/M00 A3012 RMK A01 T01901002  RH  027%=      5-min Rain = 0
KMC4 202149Z 13012KT 19/M00 A3012 RMK A01 T01891002  RH  028%=      5-min Rain = 0
KMC4 202150Z 15012KT 19/M00 A3012 RMK A01 T01881001  RH  028%=      5-min Rain = 0
KMC4 202151Z 15015KT 19/M00 A3012 RMK A01 T01891004  RH  027%=      5-min Rain = 0
KMC4 202152Z 15011KT 19/M01 A3012 RMK A01 T01891005  RH  027%=      5-min Rain = 0
KMC4 202153Z 15011KT 19/M01 A3012 RMK A01 T01881006  RH  027%=      5-min Rain = 0
KMC4 202154Z 14010KT 19/M01 A3012 RMK A01 T01881006  RH  027%=      5-min Rain = 0
KMC4 202155Z 15011KT 19/M01 A3012 RMK A01 T01891006  RH  027%=      5-min Rain = 0
KMC4 202156Z 13012KT 19/M00 A3012 RMK A01 T01891003  RH  027%=      5-min Rain = 0
KMC4 202157Z 12013KT 19/M00 A3012 RMK A01 T01901002  RH  027%=      5-min Rain = 0
KMC4 202158Z 13011KT 19/M00 A3012 RMK A01 T01891003  RH  027%=      5-min Rain = 0
KMC4 202159Z 13010KT 19/M00 A3012 RMK A01 T01891001  RH  028%=      5-min Rain = 0
KMC4 202200Z 13011KT 19/M00 A3012 RMK A01 T01891003  RH  027%=      5-min Rain = 0
KMC4 202201Z 13011KT 19/00 A3012 RMK A01 T019000-0  RH  028%=      5-min Rain = 0
KMC4 202202Z 14010KT 19/M00 A3012 RMK A01 T01901003  RH  027%=      5-min Rain = 0
KMC4 202203Z 14011KT 19/M00 A3012 RMK A01 T01901002  RH  027%=      5-min Rain = 0
KMC4 202204Z 15012KT 19/M00 A3012 RMK A01 T01911003  RH  027%=      5-min Rain = 0
KMC4 202205Z 15011KT 19/M00 A3012 RMK A01 T01911003  RH  027%=      5-min Rain = 0
KMC4 202206Z 15010KT 19/M00 A3012 RMK A01 T01931001  RH  027%=      5-min Rain = 0
KMC4 202207Z 13014KT 19/M00 A3012 RMK A01 T01941004  RH  026%=      5-min Rain = 0
KMC4 202208Z 14013KT 19/M00 A3012 RMK A01 T01931004  RH  026%=      5-min Rain = 0
KMC4 202209Z 14012KT 19/M00 A3012 RMK A01 T01941003  RH  027%=      5-min Rain = 0
KMC4 202210Z 14012KT 20/M00 A3012 RMK A01 T01951004  RH  026%=      5-min Rain = 0
KMC4 202211Z 15013KT 20/M01 A3012 RMK A01 T01961005  RH  026%=      5-min Rain = 0
KMC4 202212Z 15012KT 20/M01 A3012 RMK A01 T01961007  RH  026%=      5-min Rain = 0
KMC4 202213Z 16012KT 20/M01 A3012 RMK A01 T01961006  RH  026%=      5-min Rain = 0
KMC4 202214Z 16014KT 20/M01 A3012 RMK A01 T01961008  RH  025%=      5-min Rain = 0
KMC4 202215Z 17013KT 20/M01 A3012 RMK A01 T01961010  RH  025%=      5-min Rain = 0
KMC4 202216Z 16011KT 20/M01 A3012 RMK A01 T01951011  RH  025%=      5-min Rain = 0
KMC4 202217Z 16012KT 19/M01 A3012 RMK A01 T01941012  RH  025%=      5-min Rain = 0
KMC4 202218Z 15013KT 20/M01 A3012 RMK A01 T01951010  RH  025%=      5-min Rain = 0
KMC4 202219Z 14016KT 20/M01 A3012 RMK A01 T01951006  RH  026%=      5-min Rain = 0
KMC4 202220Z 15013KT 20/M01 A3012 RMK A01 T01951007  RH  026%=      5-min Rain = 0
KMC4 202221Z 15011KT 19/M01 A3012 RMK A01 T01941006  RH  026%=      5-min Rain = 0
KMC4 202222Z 15011KT 19/M01 A3012 RMK A01 T01941007  RH  026%=      5-min Rain = 0
KMC4 202223Z 15012KT 20/M01 A3012 RMK A01 T01951006  RH  026%=      5-min Rain = 0
KMC4 202224Z 16014KT 20/M01 A3012 RMK A01 T01961008  RH  025%=      5-min Rain = 0
KMC4 202225Z 16014KT 20/M01 A3012 RMK A01 T01961010  RH  025%=      5-min Rain = 0
KMC4 202226Z 16011KT 20/M01 A3012 RMK A01 T01951009  RH  025%=      5-min Rain = 0
KMC4 202227Z 16011KT 20/M01 A3011 RMK A01 T01951008  RH  025%=      5-min Rain = 0
KMC4 202228Z 16011KT 20/M01 A3011 RMK A01 T01951008  RH  025%=      5-min Rain = 0
KMC4 202229Z 16011KT 20/M01 A3011 RMK A01 T01951006  RH  026%=      5-min Rain = 0
KMC4 202230Z 15010KT 19/M00 A3012 RMK A01 T01941003  RH  027%=      5-min Rain = 0
KMC4 202231Z 15012KT 20/M00 A3011 RMK A01 T01951003  RH  026%=      5-min Rain = 0
KMC4 202232Z 15012KT 20/M00 A3011 RMK A01 T01951004  RH  026%=      5-min Rain = 0
KMC4 202233Z 14013KT 19/M00 A3011 RMK A01 T01941004  RH  026%=      5-min Rain = 0
KMC4 202234Z 15012KT 19/M01 A3011 RMK A01 T01931005  RH  026%=      5-min Rain = 0
KMC4 202235Z 15009KT 19/M00 A3012 RMK A01 T01931003  RH  027%=      5-min Rain = 0
KMC4 202236Z 16010KT 19/M00 A3012 RMK A01 T01941002  RH  027%=      5-min Rain = 0
KMC4 202237Z 15013KT 20/M01 A3011 RMK A01 T01951005  RH  026%=      5-min Rain = 0
KMC4 202238Z 16014KT 20/M01 A3011 RMK A01 T01951009  RH  025%=      5-min Rain = 0
KMC4 202239Z 16013KT 19/M01 A3012 RMK A01 T01931009  RH  025%=      5-min Rain = 0
KMC4 202240Z 16014KT 19/M01 A3011 RMK A01 T01931010  RH  025%=      5-min Rain = 0
KMC4 202241Z 16013KT 19/M01 A3011 RMK A01 T01921009  RH  026%=      5-min Rain = 0
KMC4 202242Z 15013KT 19/M01 A3012 RMK A01 T01911007  RH  026%=      5-min Rain = 0
KMC4 202243Z 16013KT 19/M01 A3011 RMK A01 T01911008  RH  026%=      5-min Rain = 0
KMC4 202244Z 15014KT 19/M01 A3011 RMK A01 T01911008  RH  026%=      5-min Rain = 0
KMC4 202245Z 16013KT 19/M01 A3011 RMK A01 T01901009  RH  026%=      5-min Rain = 0
KMC4 202246Z 16014KT 19/M01 A3011 RMK A01 T01911008  RH  026%=      5-min Rain = 0
KMC4 202247Z 16012KT 19/M01 A3011 RMK A01 T01901009  RH  026%=      5-min Rain = 0
KMC4 202248Z 15012KT 19/M01 A3011 RMK A01 T01901007  RH  026%=      5-min Rain = 0
KMC4 202249Z 15012KT 19/M01 A3011 RMK A01 T01901008  RH  026%=      5-min Rain = 0
KMC4 202250Z 16013KT 19/M01 A3011 RMK A01 T01901009  RH  026%=      5-min Rain = 0
KMC4 202251Z 16011KT 19/M01 A3011 RMK A01 T01891008  RH  026%=      5-min Rain = 0
KMC4 202252Z 16013KT 19/M01 A3011 RMK A01 T01891008  RH  026%=      5-min Rain = 0
KMC4 202253Z 15010KT 19/M01 A3011 RMK A01 T01891007  RH  027%=      5-min Rain = 0
KMC4 202254Z 16010KT 19/M01 A3011 RMK A01 T01901005  RH  027%=      5-min Rain = 0
KMC4 202255Z 16011KT 19/M01 A3011 RMK A01 T01911007  RH  026%=      5-min Rain = 0
KMC4 202256Z 16014KT 19/M01 A3011 RMK A01 T01911007  RH  026%=      5-min Rain = 0
KMC4 202257Z 16015KT 19/M01 A3011 RMK A01 T01901009  RH  026%=      5-min Rain = 0
KMC4 202258Z 16012KT 19/M01 A3011 RMK A01 T01891012  RH  026%=      5-min Rain = 0
KMC4 202259Z 16013KT 19/M01 A3011 RMK A01 T01891010  RH  026%=      5-min Rain = 0
KMC4 202300Z 15013KT 19/M01 A3011 RMK A01 T01891010  RH  026%=      5-min Rain = 0
KMC4 202301Z 17014KT 19/M01 A3011 RMK A01 T01891009  RH  026%=      5-min Rain = 0
KMC4 202302Z 16015KT 19/M01 A3011 RMK A01 T01881011  RH  026%=      5-min Rain = 0
KMC4 202303Z 16012KT 19/M01 A3011 RMK A01 T01871011  RH  026%=      5-min Rain = 0
KMC4 202304Z 16014KT 19/M01 A3011 RMK A01 T01871010  RH  026%=      5-min Rain = 0
KMC4 202305Z 16013KT 19/M01 A3011 RMK A01 T01871009  RH  026%=      5-min Rain = 0
KMC4 202306Z 15013KT 19/M01 A3011 RMK A01 T01871008  RH  027%=      5-min Rain = 0
KMC4 202307Z 15013KT 19/M01 A3011 RMK A01 T01871007  RH  027%=      5-min Rain = 0
KMC4 202308Z 16013KT 19/M01 A3011 RMK A01 T01871008  RH  027%=      5-min Rain = 0
KMC4 202309Z 16014KT 19/M01 A3011 RMK A01 T01861011  RH  026%=      5-min Rain = 0
KMC4 202310Z 16014KT 19/M01 A3011 RMK A01 T01851012  RH  026%=      5-min Rain = 0
KMC4 202311Z 17013KT 19/M01 A3011 RMK A01 T01851011  RH  027%=      5-min Rain = 0
KMC4 202312Z 16013KT 18/M01 A301 RMK A01 T01841011  RH  027%=      5-min Rain = 0
KMC4 202313Z 16012KT 19/M01 A3011 RMK A01 T01851011  RH  027%=      5-min Rain = 0
KMC4 202314Z 16011KT 18/M01 A3011 RMK A01 T01841011  RH  027%=      5-min Rain = 0
KMC4 202315Z 16017KT 18/M01 A301 RMK A01 T01841012  RH  026%=      5-min Rain = 0
KMC4 202316Z 15016KT 18/M01 A301 RMK A01 T01841013  RH  026%=      5-min Rain = 0
KMC4 202317Z 15015KT 18/M01 A301 RMK A01 T01831012  RH  027%=      5-min Rain = 0
KMC4 202318Z 15015KT 18/M01 A301 RMK A01 T01821013  RH  027%=      5-min Rain = 0
KMC4 202319Z 16014KT 18/M01 A301 RMK A01 T01821013  RH  027%=      5-min Rain = 0
KMC4 202320Z 16015KT 18/M01 A301 RMK A01 T01811013  RH  027%=      5-min Rain = 0
KMC4 202321Z 16014KT 18/M01 A301 RMK A01 T01811013  RH  027%=      5-min Rain = 0
KMC4 202322Z 16013KT 18/M01 A301 RMK A01 T01811012  RH  027%=      5-min Rain = 0
KMC4 202323Z 16012KT 18/M01 A301 RMK A01 T01811012  RH  027%=      5-min Rain = 0
KMC4 202324Z 16014KT 18/M01 A301 RMK A01 T01801012  RH  027%=      5-min Rain = 0
KMC4 202325Z 16011KT 18/M01 A301 RMK A01 T01801012  RH  027%=      5-min Rain = 0
KMC4 202326Z 16010KT 18/M01 A3011 RMK A01 T01811010  RH  027%=      5-min Rain = 0
KMC4 202327Z 15011KT 18/M01 A301 RMK A01 T01801012  RH  027%=      5-min Rain = 0
KMC4 202328Z 16011KT 18/M01 A301 RMK A01 T01801012  RH  027%=      5-min Rain = 0
KMC4 202329Z 16015KT 18/M01 A3011 RMK A01 T01801012  RH  027%=      5-min Rain = 0
KMC4 202330Z 17013KT 18/M01 A3011 RMK A01 T01791013  RH  027%=      5-min Rain = 0
KMC4 202331Z 17013KT 18/M01 A3011 RMK A01 T01781013  RH  027%=      5-min Rain = 0
KMC4 202332Z 15013KT 18/M01 A301 RMK A01 T01771012  RH  028%=      5-min Rain = 0
KMC4 202333Z 15012KT 18/M01 A3011 RMK A01 T01771012  RH  028%=      5-min Rain = 0
KMC4 202334Z 16012KT 18/M01 A3011 RMK A01 T01751012  RH  028%=      5-min Rain = 0
KMC4 202335Z 15013KT 18/M01 A3011 RMK A01 T01751012  RH  028%=      5-min Rain = 0
KMC4 202336Z 15013KT 17/M01 A3011 RMK A01 T01741013  RH  028%=      5-min Rain = 0
KMC4 202337Z 16011KT 17/M01 A3011 RMK A01 T01741013  RH  028%=      5-min Rain = 0
KMC4 202338Z 15010KT 17/M01 A3011 RMK A01 T01731012  RH  028%=      5-min Rain = 0
KMC4 202339Z 15011KT 17/M01 A3011 RMK A01 T01721012  RH  028%=      5-min Rain = 0
KMC4 202340Z 16013KT 17/M01 A3011 RMK A01 T01721012  RH  029%=      5-min Rain = 0
KMC4 202341Z 16011KT 17/M01 A3011 RMK A01 T01711013  RH  029%=      5-min Rain = 0
KMC4 202342Z 16009KT 17/M01 A3011 RMK A01 T01711013  RH  029%=      5-min Rain = 0
KMC4 202343Z 16009KT 17/M01 A3011 RMK A01 T01701012  RH  029%=      5-min Rain = 0
KMC4 202344Z 15008KT 17/M01 A3011 RMK A01 T01701012  RH  029%=      5-min Rain = 0
KMC4 202345Z 15007KT 17/M01 A3011 RMK A01 T01691011  RH  029%=      5-min Rain = 0
KMC4 202346Z 15008KT 17/M01 A3011 RMK A01 T01681011  RH  029%=      5-min Rain = 0
KMC4 202347Z 15008KT 17/M01 A3011 RMK A01 T01671011  RH  030%=      5-min Rain = 0
KMC4 202348Z 15008KT 17/M01 A3011 RMK A01 T01671012  RH  030%=      5-min Rain = 0
KMC4 202349Z 15008KT 17/M01 A3011 RMK A01 T01661011  RH  030%=      5-min Rain = 0
KMC4 202350Z 14009KT 17/M01 A3011 RMK A01 T01661011  RH  030%=      5-min Rain = 0
KMC4 202351Z 15009KT 17/M01 A3011 RMK A01 T01651012  RH  030%=      5-min Rain = 0
KMC4 202352Z 14006KT 17/M01 A3011 RMK A01 T01651011  RH  030%=      5-min Rain = 0
KMC4 202353Z 14007KT 16/M01 A3011 RMK A01 T01641010  RH  031%=      5-min Rain = 0
KMC4 202354Z 15008KT 16/M01 A3011 RMK A01 T01621011  RH  031%=      5-min Rain = 0
KMC4 202355Z 15007KT 16/M01 A3011 RMK A01 T01611011  RH  031%=      5-min Rain = 0
KMC4 202356Z 15008KT 16/M01 A3011 RMK A01 T01601011  RH  031%=      5-min Rain = 0
KMC4 202357Z 14007KT 16/M01 A3011 RMK A01 T01591011  RH  031%=      5-min Rain = 0
KMC4 202358Z 14008KT 16/M01 A3011 RMK A01 T01581010  RH  031%=      5-min Rain = 0
KMC4 202359Z 15009KT 16/M01 A3011 RMK A01 T01571011  RH  032%=      5-min Rain = 0
KMC4 210000Z 15008KT 16/M01 A3011 RMK A01 T01571011  RH  032%=      5-min Rain = 0
KMC4 210001Z 15008KT 16/M01 A3011 RMK A01 T01571011  RH  032%=      5-min Rain = 0
KMC4 210002Z 15009KT 16/M01 A3011 RMK A01 T01561011  RH  032%=      5-min Rain = 0
KMC4 210003Z 15008KT 16/M01 A3011 RMK A01 T01571011  RH  032%=      5-min Rain = 0
KMC4 210004Z 15010KT 16/M01 A3011 RMK A01 T01561011  RH  032%=      5-min Rain = 0
KMC4 210005Z 15010KT 16/M01 A3011 RMK A01 T01561012  RH  032%=      5-min Rain = 0
KMC4 210006Z 15011KT 16/M01 A3011 RMK A01 T01561011  RH  032%=      5-min Rain = 0
KMC4 210007Z 15012KT 16/M01 A3011 RMK A01 T01551013  RH  032%=      5-min Rain = 0
KMC4 210008Z 15009KT 16/M01 A3011 RMK A01 T01561012  RH  031%=      5-min Rain = 0
KMC4 210009Z 14009KT 16/M01 A3011 RMK A01 T01561012  RH  032%=      5-min Rain = 0
KMC4 210010Z 15009KT 16/M01 A3011 RMK A01 T01551012  RH  032%=      5-min Rain = 0
KMC4 210011Z 15008KT 15/M01 A3011 RMK A01 T01541012  RH  032%=      5-min Rain = 0
KMC4 210012Z 15008KT 15/M01 A3011 RMK A01 T01521012  RH  032%=      5-min Rain = 0
KMC4 210013Z 14009KT 15/M01 A3011 RMK A01 T01511012  RH  033%=      5-min Rain = 0
KMC4 210014Z 15008KT 15/M01 A3011 RMK A01 T01511012  RH  033%=      5-min Rain = 0
KMC4 210015Z 15009KT 15/M01 A3011 RMK A01 T01501012  RH  033%=      5-min Rain = 0
KMC4 210016Z 15008KT 15/M01 A3011 RMK A01 T01491012  RH  033%=      5-min Rain = 0
KMC4 210017Z 15009KT 15/M01 A3011 RMK A01 T01491012  RH  033%=      5-min Rain = 0
KMC4 210018Z 14008KT 15/M01 A3011 RMK A01 T01481012  RH  033%=      5-min Rain = 0
KMC4 210019Z 15008KT 15/M01 A3011 RMK A01 T01471012  RH  034%=      5-min Rain = 0
KMC4 210020Z 14008KT 15/M01 A3011 RMK A01 T01461011  RH  034%=      5-min Rain = 0
KMC4 210021Z 14008KT 15/M01 A3011 RMK A01 T01451011  RH  034%=      5-min Rain = 0
KMC4 210022Z 14008KT 15/M01 A3011 RMK A01 T01451011  RH  034%=      5-min Rain = 0
KMC4 210023Z 14008KT 14/M01 A3011 RMK A01 T01441011  RH  034%=      5-min Rain = 0
KMC4 210024Z 14008KT 14/M01 A3011 RMK A01 T01431011  RH  035%=      5-min Rain = 0
KMC4 210025Z 14008KT 14/M01 A3011 RMK A01 T01421011  RH  035%=      5-min Rain = 0
KMC4 210026Z 13008KT 14/M01 A3011 RMK A01 T01421010  RH  035%=      5-min Rain = 0
KMC4 210027Z 13010KT 14/M01 A3011 RMK A01 T01411011  RH  035%=      5-min Rain = 0
KMC4 210028Z 13010KT 14/M01 A301 RMK A01 T01411010  RH  035%=      5-min Rain = 0
KMC4 210029Z 14009KT 14/M01 A301 RMK A01 T01411009  RH  036%=      5-min Rain = 0
KMC4 210030Z 14008KT 14/M01 A301 RMK A01 T01401009  RH  036%=      5-min Rain = 0
KMC4 210031Z 14009KT 14/M01 A3011 RMK A01 T01401009  RH  036%=      5-min Rain = 0
KMC4 210032Z 14009KT 14/M01 A3011 RMK A01 T01391008  RH  036%=      5-min Rain = 0
KMC4 210033Z 14009KT 14/M01 A3011 RMK A01 T01391008  RH  037%=      5-min Rain = 0
KMC4 210034Z 14010KT 14/M01 A301 RMK A01 T01381008  RH  037%=      5-min Rain = 0
KMC4 210035Z 14010KT 14/M01 A301 RMK A01 T01381008  RH  037%=      5-min Rain = 0
KMC4 210036Z 14011KT 14/M01 A301 RMK A01 T01381007  RH  037%=      5-min Rain = 0
KMC4 210037Z 15010KT 14/M01 A301 RMK A01 T01381007  RH  037%=      5-min Rain = 0
KMC4 210038Z 14011KT 14/M01 A301 RMK A01 T01381007  RH  037%=      5-min Rain = 0
KMC4 210039Z 14010KT 14/M01 A301 RMK A01 T01381007  RH  037%=      5-min Rain = 0
KMC4 210040Z 14011KT 14/M01 A301 RMK A01 T01381007  RH  037%=      5-min Rain = 0
KMC4 210041Z 14010KT 14/M01 A301 RMK A01 T01371007  RH  037%=      5-min Rain = 0
KMC4 210042Z 14010KT 14/M01 A3011 RMK A01 T01371007  RH  037%=      5-min Rain = 0
KMC4 210043Z 14010KT 14/M01 A3011 RMK A01 T01361007  RH  037%=      5-min Rain = 0
KMC4 210044Z 14010KT 14/M01 A3011 RMK A01 T01351007  RH  037%=      5-min Rain = 0
KMC4 210045Z 14010KT 14/M01 A3011 RMK A01 T01351007  RH  037%=      5-min Rain = 0
KMC4 210046Z 14010KT 14/M01 A3011 RMK A01 T01351007  RH  037%=      5-min Rain = 0
KMC4 210047Z 14010KT 14/M01 A3011 RMK A01 T01351008  RH  037%=      5-min Rain = 0
KMC4 210048Z 14009KT 14/M01 A3011 RMK A01 T01351008  RH  037%=      5-min Rain = 0
KMC4 210049Z 15010KT 14/M01 A3011 RMK A01 T01351008  RH  037%=      5-min Rain = 0
KMC4 210050Z 15009KT 13/M01 A3011 RMK A01 T01341008  RH  037%=      5-min Rain = 0
KMC4 210051Z 15009KT 13/M01 A3011 RMK A01 T01341008  RH  038%=      5-min Rain = 0
KMC4 210052Z 15009KT 13/M01 A3011 RMK A01 T01331008  RH  038%=      5-min Rain = 0
KMC4 210053Z 14009KT 13/M01 A3011 RMK A01 T01321009  RH  038%=      5-min Rain = 0
KMC4 210054Z 14009KT 13/M01 A3011 RMK A01 T01321008  RH  038%=      5-min Rain = 0
KMC4 210055Z 15010KT 13/M01 A3011 RMK A01 T01321009  RH  038%=      5-min Rain = 0
KMC4 210056Z 15009KT 13/M01 A3011 RMK A01 T01321008  RH  038%=      5-min Rain = 0
KMC4 210057Z 14011KT 13/M01 A3011 RMK A01 T01321008  RH  038%=      5-min Rain = 0
KMC4 210058Z 15011KT 13/M01 A3011 RMK A01 T01321009  RH  038%=      5-min Rain = 0
KMC4 210059Z 15010KT 13/M01 A3011 RMK A01 T01321009  RH  038%=      5-min Rain = 0
KMC4 210100Z 14010KT 13/M01 A3011 RMK A01 T01321009  RH  038%=      5-min Rain = 0
KMC4 210101Z 15010KT 13/M01 A3011 RMK A01 T01311009  RH  038%=      5-min Rain = 0
KMC4 210102Z 15008KT 13/M01 A3011 RMK A01 T01311009  RH  038%=      5-min Rain = 0
KMC4 210103Z 15010KT 13/M01 A3011 RMK A01 T01301009  RH  038%=      5-min Rain = 0
KMC4 210104Z 14009KT 13/M01 A3011 RMK A01 T01301010  RH  038%=      5-min Rain = 0
KMC4 210105Z 14009KT 13/M01 A3011 RMK A01 T01301011  RH  038%=      5-min Rain = 0
KMC4 210106Z 14009KT 13/M01 A3011 RMK A01 T01301010  RH  038%=      5-min Rain = 0
KMC4 210107Z 14008KT 13/M01 A3011 RMK A01 T01301010  RH  038%=      5-min Rain = 0
KMC4 210108Z 14008KT 13/M01 A3011 RMK A01 T01291010  RH  038%=      5-min Rain = 0
KMC4 210109Z 15008KT 13/M01 A3011 RMK A01 T01291011  RH  038%=      5-min Rain = 0
KMC4 210110Z 15008KT 13/M01 A3011 RMK A01 T01281010  RH  038%=      5-min Rain = 0
KMC4 210111Z 14008KT 13/M01 A3011 RMK A01 T01271011  RH  038%=      5-min Rain = 0
KMC4 210112Z 14008KT 13/M01 A3011 RMK A01 T01271011  RH  039%=      5-min Rain = 0
KMC4 210113Z 14008KT 13/M01 A3011 RMK A01 T01261011  RH  039%=      5-min Rain = 0
KMC4 210114Z 14008KT 13/M01 A3011 RMK A01 T01271011  RH  039%=      5-min Rain = 0
KMC4 210115Z 14009KT 13/M01 A3011 RMK A01 T01261011  RH  039%=      5-min Rain = 0
KMC4 210116Z 14009KT 13/M01 A3011 RMK A01 T01261011  RH  038%=      5-min Rain = 0
KMC4 210117Z 14009KT 13/M01 A3011 RMK A01 T01271012  RH  038%=      5-min Rain = 0
KMC4 210118Z 14008KT 13/M01 A3011 RMK A01 T01271012  RH  038%=      5-min Rain = 0
KMC4 210119Z 14008KT 13/M01 A3011 RMK A01 T01271012  RH  038%=      5-min Rain = 0
KMC4 210120Z 14007KT 13/M01 A3011 RMK A01 T01261012  RH  038%=      5-min Rain = 0
KMC4 210121Z 14008KT 13/M01 A3011 RMK A01 T01251012  RH  039%=      5-min Rain = 0
KMC4 210122Z 14007KT 13/M01 A3011 RMK A01 T01251012  RH  039%=      5-min Rain = 0
KMC4 210123Z 13007KT 13/M01 A3011 RMK A01 T01251012  RH  039%=      5-min Rain = 0
KMC4 210124Z 13007KT 12/M01 A3011 RMK A01 T01241012  RH  039%=      5-min Rain = 0
KMC4 210125Z 13007KT 12/M01 A3011 RMK A01 T01231012  RH  039%=      5-min Rain = 0
KMC4 210126Z 14007KT 12/M01 A3011 RMK A01 T01231012  RH  039%=      5-min Rain = 0
KMC4 210127Z 13007KT 12/M01 A3011 RMK A01 T01231012  RH  039%=      5-min Rain = 0
KMC4 210128Z 13008KT 12/M01 A3011 RMK A01 T01231012  RH  039%=      5-min Rain = 0
KMC4 210129Z 14006KT 12/M01 A3011 RMK A01 T01221012  RH  039%=      5-min Rain = 0
KMC4 210130Z 14006KT 12/M01 A3011 RMK A01 T01221011  RH  040%=      5-min Rain = 0
KMC4 210131Z 13006KT 12/M01 A3011 RMK A01 T01221012  RH  040%=      5-min Rain = 0
KMC4 210132Z 14007KT 12/M01 A3011 RMK A01 T01211011  RH  040%=      5-min Rain = 0
KMC4 210133Z 13007KT 12/M01 A3011 RMK A01 T01201011  RH  040%=      5-min Rain = 0
KMC4 210134Z 13009KT 12/M01 A3011 RMK A01 T01191012  RH  040%=      5-min Rain = 0
KMC4 210135Z 14009KT 12/M01 A3011 RMK A01 T01211012  RH  040%=      5-min Rain = 0
KMC4 210136Z 13006KT 12/M01 A3011 RMK A01 T01221011  RH  040%=      5-min Rain = 0
KMC4 210137Z 13006KT 12/M01 A3011 RMK A01 T01221011  RH  040%=      5-min Rain = 0
KMC4 210138Z 13007KT 12/M01 A3011 RMK A01 T01211011  RH  040%=      5-min Rain = 0
KMC4 210139Z 13006KT 12/M01 A3011 RMK A01 T01201011  RH  040%=      5-min Rain = 0
KMC4 210140Z 14007KT 12/M01 A3011 RMK A01 T01191011  RH  041%=      5-min Rain = 0
KMC4 210141Z 14007KT 12/M01 A3011 RMK A01 T01181010  RH  041%=      5-min Rain = 0
KMC4 210142Z 14007KT 12/M01 A3011 RMK A01 T01181010  RH  041%=      5-min Rain = 0
KMC4 210143Z 14008KT 12/M01 A3011 RMK A01 T01181010  RH  041%=      5-min Rain = 0
KMC4 210144Z 14008KT 12/M01 A3011 RMK A01 T01191010  RH  041%=      5-min Rain = 0
KMC4 210145Z 14008KT 12/M01 A3011 RMK A01 T01201010  RH  041%=      5-min Rain = 0
KMC4 210146Z 14007KT 12/M01 A3011 RMK A01 T01211009  RH  041%=      5-min Rain = 0
KMC4 210147Z 14006KT 12/M01 A3011 RMK A01 T01201009  RH  041%=      5-min Rain = 0
KMC4 210148Z 14006KT 12/M01 A3011 RMK A01 T01201009  RH  041%=      5-min Rain = 0
KMC4 210149Z 13006KT 12/M01 A3012 RMK A01 T01191009  RH  041%=      5-min Rain = 0
KMC4 210150Z 13006KT 12/M01 A3012 RMK A01 T01181009  RH  041%=      5-min Rain = 0
KMC4 210151Z 14006KT 12/M01 A3012 RMK A01 T01171009  RH  042%=      5-min Rain = 0
KMC4 210152Z 14007KT 12/M01 A3012 RMK A01 T01161009  RH  042%=      5-min Rain = 0
KMC4 210153Z 14007KT 12/M01 A3012 RMK A01 T01161008  RH  042%=      5-min Rain = 0
KMC4 210154Z 14007KT 12/M01 A3012 RMK A01 T01161008  RH  042%=      5-min Rain = 0
KMC4 210155Z 14007KT 12/M01 A3012 RMK A01 T01161008  RH  042%=      5-min Rain = 0
KMC4 210156Z 14007KT 12/M01 A3012 RMK A01 T01161008  RH  042%=      5-min Rain = 0
KMC4 210157Z 14007KT 12/M01 A3012 RMK A01 T01161008  RH  042%=      5-min Rain = 0
KMC4 210158Z 14007KT 12/M01 A3011 RMK A01 T01161008  RH  042%=      5-min Rain = 0
KMC4 210159Z 14006KT 12/M01 A3011 RMK A01 T01161007  RH  042%=      5-min Rain = 0
KMC4 210200Z 14006KT 12/M01 A3011 RMK A01 T01161007  RH  042%=      5-min Rain = 0
KMC4 210201Z 14006KT 12/M01 A3011 RMK A01 T01161007  RH  043%=      5-min Rain = 0
KMC4 210202Z 14007KT 12/M01 A3011 RMK A01 T01151007  RH  043%=      5-min Rain = 0
KMC4 210203Z 14008KT 12/M01 A3011 RMK A01 T01151007  RH  043%=      5-min Rain = 0
KMC4 210204Z 14008KT 12/M01 A3011 RMK A01 T01151007  RH  043%=      5-min Rain = 0
KMC4 210205Z 14008KT 12/M01 A3011 RMK A01 T01151007  RH  043%=      5-min Rain = 0
KMC4 210206Z 14008KT 12/M01 A3011 RMK A01 T01151007  RH  043%=      5-min Rain = 0
KMC4 210207Z 14008KT 12/M01 A3011 RMK A01 T01161007  RH  043%=      5-min Rain = 0
KMC4 210208Z 14007KT 12/M01 A3011 RMK A01 T01161007  RH  043%=      5-min Rain = 0
KMC4 210209Z 15007KT 12/M01 A3011 RMK A01 T01161007  RH  043%=      5-min Rain = 0
KMC4 210210Z 15007KT 12/M01 A3011 RMK A01 T01151006  RH  043%=      5-min Rain = 0
KMC4 210211Z 15007KT 12/M01 A3011 RMK A01 T01151006  RH  043%=      5-min Rain = 0
KMC4 210212Z 14008KT 12/M01 A3011 RMK A01 T01151006  RH  043%=      5-min Rain = 0
KMC4 210213Z 15009KT 12/M01 A3011 RMK A01 T01151006  RH  043%=      5-min Rain = 0
KMC4 210214Z 14009KT 12/M01 A3011 RMK A01 T01151006  RH  043%=      5-min Rain = 0
KMC4 210215Z 14008KT 12/M01 A3011 RMK A01 T01171006  RH  043%=      5-min Rain = 0
KMC4 210216Z 14008KT 12/M01 A3011 RMK A01 T01171006  RH  042%=      5-min Rain = 0
KMC4 210217Z 15008KT 12/M01 A3011 RMK A01 T01171006  RH  042%=      5-min Rain = 0
KMC4 210218Z 15008KT 12/M01 A3011 RMK A01 T01171006  RH  043%=      5-min Rain = 0
KMC4 210219Z 15007KT 12/M01 A3011 RMK A01 T01161005  RH  043%=      5-min Rain = 0
KMC4 210220Z 14008KT 12/M01 A3011 RMK A01 T01151005  RH  043%=      5-min Rain = 0
KMC4 210221Z 15009KT 12/M01 A3011 RMK A01 T01161005  RH  043%=      5-min Rain = 0
KMC4 210222Z 15010KT 12/M01 A3011 RMK A01 T01161005  RH  043%=      5-min Rain = 0
KMC4 210223Z 15009KT 12/M01 A3011 RMK A01 T01161005  RH  043%=      5-min Rain = 0
KMC4 210224Z 15008KT 12/M00 A3011 RMK A01 T01161004  RH  043%=      5-min Rain = 0
KMC4 210225Z 15007KT 12/M00 A3011 RMK A01 T01161004  RH  043%=      5-min Rain = 0
KMC4 210226Z 15008KT 12/M00 A3011 RMK A01 T01151004  RH  044%=      5-min Rain = 0
KMC4 210227Z 15008KT 12/M00 A3011 RMK A01 T01151004  RH  044%=      5-min Rain = 0
KMC4 210228Z 15009KT 12/M00 A3011 RMK A01 T01151003  RH  044%=      5-min Rain = 0
KMC4 210229Z 15008KT 12/M00 A3011 RMK A01 T01151003  RH  044%=      5-min Rain = 0
KMC4 210230Z 15008KT 12/M00 A3011 RMK A01 T01151003  RH  044%=      5-min Rain = 0
KMC4 210231Z 15009KT 12/M00 A3011 RMK A01 T01151003  RH  044%=      5-min Rain = 0
KMC4 210232Z 15008KT 12/M00 A3011 RMK A01 T01151003  RH  044%=      5-min Rain = 0
KMC4 210233Z 15008KT 12/M00 A3011 RMK A01 T01151002  RH  044%=      5-min Rain = 0
KMC4 210234Z 15009KT 12/M00 A3011 RMK A01 T01151002  RH  044%=      5-min Rain = 0
KMC4 210235Z 15009KT 12/M00 A3011 RMK A01 T01151002  RH  045%=      5-min Rain = 0
KMC4 210236Z 14009KT 12/M00 A3011 RMK A01 T01151002  RH  045%=      5-min Rain = 0
KMC4 210237Z 14009KT 11/M00 A3011 RMK A01 T01141002  RH  045%=      5-min Rain = 0
KMC4 210238Z 15010KT 11/M00 A3011 RMK A01 T01141002  RH  045%=      5-min Rain = 0
KMC4 210239Z 15008KT 11/M00 A3011 RMK A01 T01141001  RH  045%=      5-min Rain = 0
KMC4 210240Z 15010KT 11/M00 A3011 RMK A01 T01141001  RH  045%=      5-min Rain = 0
KMC4 210241Z 14009KT 11/M00 A3011 RMK A01 T01131002  RH  045%=      5-min Rain = 0
KMC4 210242Z 15009KT 11/M00 A3011 RMK A01 T01141001  RH  045%=      5-min Rain = 0
KMC4 210243Z 15009KT 11/M00 A3011 RMK A01 T01131001  RH  045%=      5-min Rain = 0
KMC4 210244Z 15009KT 11/M00 A3011 RMK A01 T01131001  RH  045%=      5-min Rain = 0
KMC4 210245Z 15008KT 11/M00 A3011 RMK A01 T01131001  RH  046%=      5-min Rain = 0
KMC4 210246Z 16010KT 11/M00 A3011 RMK A01 T01121001  RH  046%=      5-min Rain = 0
KMC4 210247Z 15009KT 11/M00 A301 RMK A01 T01121001  RH  046%=      5-min Rain = 0
KMC4 210248Z 15009KT 11/M00 A301 RMK A01 T01121001  RH  046%=      5-min Rain = 0
KMC4 210249Z 15010KT 11/00 A301 RMK A01 T011200-0  RH  046%=      5-min Rain = 0
KMC4 210250Z 15009KT 11/00 A301 RMK A01 T011200-0  RH  046%=      5-min Rain = 0
KMC4 210251Z 15009KT 11/00 A301 RMK A01 T011200-0  RH  046%=      5-min Rain = 0
KMC4 210252Z 15010KT 11/00 A301 RMK A01 T01120000  RH  046%=      5-min Rain = 0
KMC4 210253Z 15009KT 11/00 A301 RMK A01 T01120000  RH  046%=      5-min Rain = 0
KMC4 210254Z 15010KT 11/00 A301 RMK A01 T011100-0  RH  046%=      5-min Rain = 0
KMC4 210255Z 15009KT 11/00 A301 RMK A01 T011100-0  RH  046%=      5-min Rain = 0
KMC4 210256Z 15009KT 11/00 A301 RMK A01 T011100-0  RH  046%=      5-min Rain = 0
KMC4 210257Z 15011KT 11/00 A301 RMK A01 T011100-0  RH  046%=      5-min Rain = 0
KMC4 210258Z 15010KT 11/00 A301 RMK A01 T011100-0  RH  046%=      5-min Rain = 0
KMC4 210259Z 15010KT 11/00 A301 RMK A01 T011100-0  RH  046%=      5-min Rain = 0
KMC4 210300Z 15010KT 11/M00 A301 RMK A01 T01111001  RH  046%=      5-min Rain = 0
KMC4 210301Z 15009KT 11/00 A301 RMK A01 T011100-0  RH  046%=      5-min Rain = 0
KMC4 210302Z 15008KT 11/00 A301 RMK A01 T011000-0  RH  046%=      5-min Rain = 0
KMC4 210303Z 15009KT 11/00 A301 RMK A01 T010900-0  RH  047%=      5-min Rain = 0
KMC4 210304Z 16010KT 11/00 A301 RMK A01 T010900-0  RH  047%=      5-min Rain = 0
KMC4 210305Z 15011KT 11/00 A301 RMK A01 T010900-0  RH  047%=      5-min Rain = 0
KMC4 210306Z 15009KT 11/00 A301 RMK A01 T010900-0  RH  047%=      5-min Rain = 0
KMC4 210307Z 15010KT 11/00 A301 RMK A01 T011000-0  RH  046%=      5-min Rain = 0
KMC4 210308Z 15009KT 11/00 A301 RMK A01 T011000-0  RH  046%=      5-min Rain = 0
KMC4 210309Z 16009KT 11/00 A301 RMK A01 T011000-0  RH  046%=      5-min Rain = 0
KMC4 210310Z 16010KT 11/M00 A301 RMK A01 T01101001  RH  046%=      5-min Rain = 0
KMC4 210311Z 16012KT 11/M00 A301 RMK A01 T01101001  RH  046%=      5-min Rain = 0
KMC4 210312Z 16010KT 11/M00 A301 RMK A01 T01121001  RH  046%=      5-min Rain = 0
KMC4 210313Z 16011KT 11/M00 A301 RMK A01 T01131001  RH  045%=      5-min Rain = 0
KMC4 210314Z 16014KT 11/M00 A301 RMK A01 T01141001  RH  045%=      5-min Rain = 0
KMC4 210315Z 16013KT 12/M00 A301 RMK A01 T01151001  RH  045%=      5-min Rain = 0
KMC4 210316Z 16011KT 12/M00 A301 RMK A01 T01151001  RH  045%=      5-min Rain = 0
KMC4 210317Z 16011KT 12/M00 A301 RMK A01 T01151001  RH  045%=      5-min Rain = 0
KMC4 210318Z 16012KT 11/M00 A3009 RMK A01 T01141001  RH  045%=      5-min Rain = 0
KMC4 210319Z 16010KT 11/M00 A3009 RMK A01 T01141001  RH  045%=      5-min Rain = 0
KMC4 210320Z 17010KT 11/M00 A301 RMK A01 T01131001  RH  045%=      5-min Rain = 0
KMC4 210321Z 16012KT 11/M00 A3009 RMK A01 T01121002  RH  045%=      5-min Rain = 0
KMC4 210322Z 17016KT 11/M00 A3009 RMK A01 T01121002  RH  045%=      5-min Rain = 0
KMC4 210323Z 16014KT 11/M00 A3009 RMK A01 T01141002  RH  045%=      5-min Rain = 0
KMC4 210324Z 17014KT 12/M00 A3009 RMK A01 T01151002  RH  044%=      5-min Rain = 0
KMC4 210325Z 16012KT 12/M00 A3009 RMK A01 T01151002  RH  044%=      5-min Rain = 0
KMC4 210326Z 16013G19KT 12/M00 A3009 RMK A01 T01151002  RH  044%=      5-min Rain = 0
KMC4 210327Z 16014KT 12/M00 A3009 RMK A01 T01151002  RH  044%=      5-min Rain = 0
KMC4 210328Z 16013KT 12/M00 A3009 RMK A01 T01151002  RH  044%=      5-min Rain = 0
KMC4 210329Z 17013KT 12/M00 A3009 RMK A01 T01151002  RH  044%=      5-min Rain = 0
KMC4 210330Z 16012KT 12/M00 A3009 RMK A01 T01151002  RH  045%=      5-min Rain = 0
KMC4 210331Z 16011KT 11/M00 A3009 RMK A01 T01141002  RH  045%=      5-min Rain = 0
KMC4 210332Z 16015KT 11/M00 A3009 RMK A01 T01131002  RH  045%=      5-min Rain = 0
KMC4 210333Z 16015KT 11/M00 A3009 RMK A01 T01131002  RH  045%=      5-min Rain = 0
KMC4 210334Z 16014KT 11/M00 A3009 RMK A01 T01131002  RH  045%=      5-min Rain = 0
KMC4 210335Z 16014KT 11/M00 A3009 RMK A01 T01131002  RH  045%=      5-min Rain = 0
KMC4 210336Z 16016KT 11/M00 A3009 RMK A01 T01131002  RH  045%=      5-min Rain = 0
KMC4 210337Z 16013KT 11/M00 A3009 RMK A01 T01141001  RH  045%=      5-min Rain = 0
KMC4 210338Z 16013KT 11/M00 A3009 RMK A01 T01131002  RH  045%=      5-min Rain = 0
KMC4 210339Z 16013KT 11/M00 A3009 RMK A01 T01131002  RH  045%=      5-min Rain = 0
KMC4 210340Z 16015KT 11/M00 A3009 RMK A01 T01121002  RH  045%=      5-min Rain = 0
KMC4 210341Z 16012KT 11/M00 A3009 RMK A01 T01121002  RH  045%=      5-min Rain = 0
KMC4 210342Z 16010KT 11/M00 A3009 RMK A01 T01121002  RH  045%=      5-min Rain = 0
KMC4 210343Z 16013KT 11/M00 A3009 RMK A01 T01111002  RH  046%=      5-min Rain = 0
KMC4 210344Z 16012KT 11/M00 A3009 RMK A01 T01111002  RH  046%=      5-min Rain = 0
KMC4 210345Z 15012KT 11/M00 A3009 RMK A01 T01101002  RH  046%=      5-min Rain = 0
KMC4 210346Z 15014KT 11/M00 A3009 RMK A01 T01101002  RH  046%=      5-min Rain = 0
KMC4 210347Z 16013KT 11/M00 A3009 RMK A01 T01101002  RH  046%=      5-min Rain = 0
KMC4 210348Z 15012KT 11/M00 A3009 RMK A01 T01101002  RH  046%=      5-min Rain = 0
KMC4 210349Z 16015KT 11/M00 A3009 RMK A01 T01101002  RH  046%=      5-min Rain = 0
KMC4 210350Z 16015KT 11/M00 A3009 RMK A01 T01101002  RH  046%=      5-min Rain = 0
KMC4 210351Z 16016KT 11/M00 A3009 RMK A01 T01111003  RH  045%=      5-min Rain = 0
KMC4 210352Z 16014KT 11/M00 A3009 RMK A01 T01111003  RH  045%=      5-min Rain = 0
KMC4 210353Z 16012KT 11/M00 A3009 RMK A01 T01101003  RH  046%=      5-min Rain = 0
KMC4 210354Z 15012G17KT 11/M00 A3009 RMK A01 T01091003  RH  046%=      5-min Rain = 0
KMC4 210355Z 15015KT 11/M00 A3009 RMK A01 T01091003  RH  046%=      5-min Rain = 0
KMC4 210356Z 15016KT 11/M00 A3009 RMK A01 T01091003  RH  046%=      5-min Rain = 0
KMC4 210357Z 16014KT 11/M00 A3009 RMK A01 T01101003  RH  046%=      5-min Rain = 0
KMC4 210358Z 15016KT 11/M00 A3009 RMK A01 T01091003  RH  046%=      5-min Rain = 0
KMC4 210359Z 15012KT 11/M00 A3009 RMK A01 T01101003  RH  046%=      5-min Rain = 0
KMC4 210400Z 15014KT 11/M00 A3009 RMK A01 T01101003  RH  046%=      5-min Rain = 0
KMC4 210401Z 16012KT 11/M00 A3009 RMK A01 T01101003  RH  046%=      5-min Rain = 0
KMC4 210402Z 16012KT 11/M00 A3009 RMK A01 T01091003  RH  046%=      5-min Rain = 0
KMC4 210403Z 16017KT 11/M00 A3008 RMK A01 T01091003  RH  046%=      5-min Rain = 0
KMC4 210404Z 16014KT 11/M00 A3009 RMK A01 T01091003  RH  046%=      5-min Rain = 0
KMC4 210405Z 15013KT 11/M00 A3009 RMK A01 T01091003  RH  046%=      5-min Rain = 0
KMC4 210406Z 15016KT 11/M00 A3008 RMK A01 T01091003  RH  046%=      5-min Rain = 0
KMC4 210407Z 16014KT 11/M00 A3008 RMK A01 T01091003  RH  046%=      5-min Rain = 0
KMC4 210408Z 15013KT 11/M00 A3008 RMK A01 T01091003  RH  046%=      5-min Rain = 0
KMC4 210409Z 15015KT 11/M00 A3008 RMK A01 T01081003  RH  046%=      5-min Rain = 0
KMC4 210410Z 15015KT 11/M00 A3008 RMK A01 T01081003  RH  046%=      5-min Rain = 0
KMC4 210411Z 15016KT 11/M00 A3008 RMK A01 T01081003  RH  046%=      5-min Rain = 0
KMC4 210412Z 16012KT 11/M00 A3008 RMK A01 T01081003  RH  046%=      5-min Rain = 0
KMC4 210413Z 15013KT 11/M00 A3008 RMK A01 T01081003  RH  046%=      5-min Rain = 0
KMC4 210414Z 15012KT 11/M00 A3008 RMK A01 T01081003  RH  046%=      5-min Rain = 0
KMC4 210415Z 16012KT 11/M00 A3008 RMK A01 T01071003  RH  046%=      5-min Rain = 0
KMC4 210416Z 15013KT 11/M00 A3008 RMK A01 T01071003  RH  046%=      5-min Rain = 0
KMC4 210417Z 15012KT 11/M00 A3008 RMK A01 T01071004  RH  046%=      5-min Rain = 0
KMC4 210418Z 15012KT 11/M00 A3008 RMK A01 T01071004  RH  046%=      5-min Rain = 0
KMC4 210419Z 15014KT 11/M00 A3008 RMK A01 T01071004  RH  046%=      5-min Rain = 0
KMC4 210420Z 16012KT 11/M00 A3008 RMK A01 T01071004  RH  046%=      5-min Rain = 0
KMC4 210421Z 16010KT 11/M00 A3009 RMK A01 T01071004  RH  046%=      5-min Rain = 0
KMC4 210422Z 16010KT 11/M00 A3009 RMK A01 T01071004  RH  046%=      5-min Rain = 0
KMC4 210423Z 16009KT 11/M00 A3009 RMK A01 T01061004  RH  046%=      5-min Rain = 0
KMC4 210424Z 15010KT 11/M00 A3009 RMK A01 T01051004  RH  047%=      5-min Rain = 0
KMC4 210425Z 15009KT 11/M00 A3009 RMK A01 T01051004  RH  047%=      5-min Rain = 0
KMC4 210426Z 14011KT 10/M00 A3009 RMK A01 T01041004  RH  047%=      5-min Rain = 0
KMC4 210427Z 14008KT 10/M00 A3009 RMK A01 T01041004  RH  047%=      5-min Rain = 0
KMC4 210428Z 15009KT 10/M00 A3009 RMK A01 T01041004  RH  047%=      5-min Rain = 0
KMC4 210429Z 15009KT 10/M00 A3009 RMK A01 T01041004  RH  047%=      5-min Rain = 0
KMC4 210430Z 15008KT 10/M00 A3009 RMK A01 T01031004  RH  047%=      5-min Rain = 0
KMC4 210431Z 15009KT 10/M00 A3009 RMK A01 T01021004  RH  048%=      5-min Rain = 0
KMC4 210432Z 15007KT 10/M00 A3009 RMK A01 T01021004  RH  048%=      5-min Rain = 0
KMC4 210433Z 15008KT 10/M00 A3009 RMK A01 T01011004  RH  048%=      5-min Rain = 0
KMC4 210434Z 15011KT 10/M00 A3009 RMK A01 T01011004  RH  048%=      5-min Rain = 0
KMC4 210435Z 15012KT 10/M01 A3009 RMK A01 T01011005  RH  048%=      5-min Rain = 0
KMC4 210436Z 15013KT 10/M01 A3009 RMK A01 T01021005  RH  047%=      5-min Rain = 0
KMC4 210437Z 15012KT 10/M01 A3009 RMK A01 T01041005  RH  047%=      5-min Rain = 0
KMC4 210438Z 15010KT 10/M01 A3009 RMK A01 T01041005  RH  047%=      5-min Rain = 0
KMC4 210439Z 15008KT 10/M01 A3009 RMK A01 T01031005  RH  047%=      5-min Rain = 0
KMC4 210440Z 15008KT 10/M01 A3009 RMK A01 T01021005  RH  047%=      5-min Rain = 0
KMC4 210441Z 14008KT 10/M01 A3009 RMK A01 T01001005  RH  048%=      5-min Rain = 0
KMC4 210442Z 14008KT 10/M01 A3009 RMK A01 T00991005  RH  048%=      5-min Rain = 0
KMC4 210443Z 14008KT 10/M01 A3009 RMK A01 T00981005  RH  049%=      5-min Rain = 0
KMC4 210444Z 14008KT 10/M01 A3009 RMK A01 T00971005  RH  049%=      5-min Rain = 0
KMC4 210445Z 14010KT 10/M01 A3009 RMK A01 T00971005  RH  049%=      5-min Rain = 0
KMC4 210446Z 14009KT 10/M01 A3009 RMK A01 T00971005  RH  049%=      5-min Rain = 0
KMC4 210447Z 14009KT 10/M01 A3009 RMK A01 T00961005  RH  049%=      5-min Rain = 0
KMC4 210448Z 14009KT 10/M01 A3009 RMK A01 T00961005  RH  049%=      5-min Rain = 0
KMC4 210449Z 14009KT 10/M01 A3009 RMK A01 T00961005  RH  050%=      5-min Rain = 0
KMC4 210450Z 14009KT 10/M01 A3009 RMK A01 T00951005  RH  050%=      5-min Rain = 0
KMC4 210451Z 15011KT 10/M01 A3009 RMK A01 T00951005  RH  050%=      5-min Rain = 0
KMC4 210452Z 15010KT 10/M01 A3008 RMK A01 T00961005  RH  049%=      5-min Rain = 0
KMC4 210453Z 15009KT 10/M01 A3008 RMK A01 T00971005  RH  049%=      5-min Rain = 0
KMC4 210454Z 14009KT 10/M01 A3008 RMK A01 T00971005  RH  049%=      5-min Rain = 0
KMC4 210455Z 14009KT 10/M01 A3008 RMK A01 T00961005  RH  049%=      5-min Rain = 0
KMC4 210456Z 14009KT 10/M01 A3008 RMK A01 T00951005  RH  050%=      5-min Rain = 0
KMC4 210457Z 14008KT 09/M01 A3008 RMK A01 T00941005  RH  050%=      5-min Rain = 0
KMC4 210458Z 15008KT 09/M01 A3008 RMK A01 T00931005  RH  050%=      5-min Rain = 0
KMC4 210459Z 15008KT 09/M01 A3008 RMK A01 T00931005  RH  050%=      5-min Rain = 0
KMC4 210500Z 15008KT 09/M01 A3008 RMK A01 T00931005  RH  050%=      5-min Rain = 0
KMC4 210501Z 15008KT 09/M01 A3008 RMK A01 T00931005  RH  050%=      5-min Rain = 0
KMC4 210502Z 15008KT 09/M01 A3008 RMK A01 T00931006  RH  050%=      5-min Rain = 0
KMC4 210503Z 14008KT 09/M01 A3008 RMK A01 T00931006  RH  050%=      5-min Rain = 0
KMC4 210504Z 14009KT 09/M01 A3008 RMK A01 T00931006  RH  050%=      5-min Rain = 0
KMC4 210505Z 14009KT 09/M01 A3008 RMK A01 T00931006  RH  050%=      5-min Rain = 0
KMC4 210506Z 14009KT 09/M01 A3008 RMK A01 T00931006  RH  050%=      5-min Rain = 0
KMC4 210507Z 14008KT 09/M01 A3008 RMK A01 T00931007  RH  050%=      5-min Rain = 0
KMC4 210508Z 14008KT 09/M01 A3008 RMK A01 T00931006  RH  050%=      5-min Rain = 0
KMC4 210509Z 14009KT 09/M01 A3008 RMK A01 T00931007  RH  050%=      5-min Rain = 0
KMC4 210510Z 14008KT 09/M01 A3009 RMK A01 T00921007  RH  050%=      5-min Rain = 0
KMC4 210511Z 14008KT 09/M01 A3009 RMK A01 T00921007  RH  050%=      5-min Rain = 0
KMC4 210512Z 14008KT 09/M01 A3009 RMK A01 T00921007  RH  050%=      5-min Rain = 0
KMC4 210513Z 15007KT 09/M01 A3009 RMK A01 T00931007  RH  050%=      5-min Rain = 0
KMC4 210514Z 15007KT 09/M01 A3009 RMK A01 T00921007  RH  050%=      5-min Rain = 0
KMC4 210515Z 15006KT 09/M01 A3009 RMK A01 T00921007  RH  050%=      5-min Rain = 0
KMC4 210516Z 15006KT 09/M01 A3009 RMK A01 T00931007  RH  050%=      5-min Rain = 0
KMC4 210517Z 15008KT 09/M01 A3009 RMK A01 T00921008  RH  050%=      5-min Rain = 0
KMC4 210518Z 15008KT 09/M01 A3009 RMK A01 T00921008  RH  050%=      5-min Rain = 0
KMC4 210519Z 14008KT 09/M01 A3009 RMK A01 T00921008  RH  049%=      5-min Rain = 0
KMC4 210520Z 14008KT 09/M01 A3009 RMK A01 T00921008  RH  049%=      5-min Rain = 0
KMC4 210521Z 15009KT 09/M01 A3009 RMK A01 T00931008  RH  049%=      5-min Rain = 0
KMC4 210522Z 15007KT 09/M01 A3009 RMK A01 T00921008  RH  049%=      5-min Rain = 0
KMC4 210523Z 15007KT 09/M01 A3009 RMK A01 T00931008  RH  049%=      5-min Rain = 0
KMC4 210524Z 15007KT 09/M01 A3009 RMK A01 T00921008  RH  049%=      5-min Rain = 0
KMC4 210525Z 14008KT 09/M01 A3009 RMK A01 T00921009  RH  049%=      5-min Rain = 0
KMC4 210526Z 14009KT 09/M01 A3009 RMK A01 T00911009  RH  049%=      5-min Rain = 0
KMC4 210527Z 15008KT 09/M01 A3009 RMK A01 T00911009  RH  049%=      5-min Rain = 0
KMC4 210528Z 15010KT 09/M01 A3009 RMK A01 T00911009  RH  049%=      5-min Rain = 0
KMC4 210529Z 14010KT 09/M01 A3009 RMK A01 T00921009  RH  049%=      5-min Rain = 0
KMC4 210530Z 15010KT 09/M01 A3009 RMK A01 T00921009  RH  049%=      5-min Rain = 0
KMC4 210531Z 15010KT 09/M01 A3009 RMK A01 T00921009  RH  049%=      5-min Rain = 0
KMC4 210532Z 15010KT 09/M01 A3009 RMK A01 T00921009  RH  049%=      5-min Rain = 0
KMC4 210533Z 15010KT 09/M01 A3009 RMK A01 T00911009  RH  049%=      5-min Rain = 0
KMC4 210534Z 15011KT 09/M01 A3009 RMK A01 T00911010  RH  049%=      5-min Rain = 0
KMC4 210535Z 15010KT 09/M01 A3009 RMK A01 T00911009  RH  049%=      5-min Rain = 0
KMC4 210536Z 14010KT 09/M01 A3009 RMK A01 T00911009  RH  050%=      5-min Rain = 0
KMC4 210537Z 15010KT 09/M01 A3009 RMK A01 T00901010  RH  050%=      5-min Rain = 0
KMC4 210538Z 15010KT 09/M01 A3009 RMK A01 T00901010  RH  050%=      5-min Rain = 0
KMC4 210539Z 15011KT 09/M01 A3009 RMK A01 T00901010  RH  049%=      5-min Rain = 0
KMC4 210540Z 15010KT 09/M01 A3009 RMK A01 T00911010  RH  049%=      5-min Rain = 0
KMC4 210541Z 15010KT 09/M01 A3009 RMK A01 T00921011  RH  049%=      5-min Rain = 0
KMC4 210542Z 15009KT 09/M01 A3009 RMK A01 T00921011  RH  048%=      5-min Rain = 0
KMC4 210543Z 14008KT 09/M01 A3009 RMK A01 T00931011  RH  048%=      5-min Rain = 0
KMC4 210544Z 15009KT 09/M01 A3009 RMK A01 T00931011  RH  048%=      5-min Rain = 0
KMC4 210545Z 14009KT 09/M01 A3009 RMK A01 T00921011  RH  048%=      5-min Rain = 0
KMC4 210546Z 15008KT 09/M01 A3009 RMK A01 T00921011  RH  048%=      5-min Rain = 0
KMC4 210547Z 15008KT 09/M01 A3009 RMK A01 T00921012  RH  048%=      5-min Rain = 0
KMC4 210548Z 15007KT 09/M01 A3009 RMK A01 T00921012  RH  048%=      5-min Rain = 0
KMC4 210549Z 14007KT 09/M01 A3009 RMK A01 T00931011  RH  048%=      5-min Rain = 0
KMC4 210550Z 13007KT 09/M01 A3009 RMK A01 T00921011  RH  048%=      5-min Rain = 0
KMC4 210551Z 14008KT 09/M01 A3009 RMK A01 T00921011  RH  048%=      5-min Rain = 0
KMC4 210552Z 14007KT 09/M01 A3009 RMK A01 T00921011  RH  049%=      5-min Rain = 0
KMC4 210553Z 14006KT 09/M01 A3009 RMK A01 T00911011  RH  049%=      5-min Rain = 0
KMC4 210554Z 15007KT 09/M01 A3009 RMK A01 T00901012  RH  049%=      5-min Rain = 0
KMC4 210555Z 14008KT 09/M01 A3009 RMK A01 T00901012  RH  049%=      5-min Rain = 0
KMC4 210556Z 14007KT 09/M01 A3009 RMK A01 T00901012  RH  049%=      5-min Rain = 0
KMC4 210557Z 14007KT 09/M01 A3009 RMK A01 T00901011  RH  049%=      5-min Rain = 0
KMC4 210558Z 14006KT 09/M01 A3009 RMK A01 T00901012  RH  049%=      5-min Rain = 0
KMC4 210559Z 14007KT 09/M01 A3009 RMK A01 T00901011  RH  049%=      5-min Rain = 0

Page generated in 0.0701 seconds.